GFSNE_500_spd_000.txt.gz
Wind_Speed
66 65 66 68 73 79 84 91 97 97 92 97 106 111 116 119 118 117 111 104 98 94 89 86 84 82 80 81 81 81 81 82 83 82 82 85 88 91
66 67 70 75 80 87 92 96 103 108 109 107 113 119 119 115 105 96 91 87 82 77 78 80 80 80 78 77 76 75 73 74 76 76 78 80 82 84
68 72 77 83 87 92 97 103 108 114 120 116 118 114 102 93 84 78 74 74 76 77 81 82 80 75 70 68 69 70 71 70 69 71 72 73 74 76
73 79 84 88 93 99 104 109 115 120 123 121 105 86 77 71 68 65 65 70 77 80 74 68 66 66 66 67 68 69 71 70 67 67 68 69 70 69
80 85 90 96 101 107 113 118 121 120 110 96 82 71 65 63 63 64 67 72 71 63 63 61 59 58 58 59 61 61 62 63 62 63 64 65 66 65
87 93 100 105 110 115 118 121 118 101 86 80 75 68 67 64 67 69 69 61 57 49 46 46 48 51 53 54 54 54 52 52 53 57 60 65 67 66
94 100 106 110 115 119 120 110 94 86 83 81 78 75 72 71 72 72 58 50 39 43 44 42 51 52 53 50 44 42 40 41 45 51 55 60 64 62
99 107 112 115 118 113 98 91 90 89 84 80 78 74 72 70 66 52 45 41 33 37 46 38 50 45 42 34 29 28 23 23 26 30 37 47 54 60
108 113 114 115 105 93 88 88 83 77 73 71 66 59 55 49 44 40 41 37 32 32 42 35 40 34 30 21 14 9 15 16 19 22 27 32 40 51
110 114 111 98 88 88 84 78 72 65 56 49 45 40 37 35 37 37 31 27 25 29 28 20 30 26 15 7 6 9 14 21 26 27 27 27 32 38
112 107 93 86 86 78 74 70 60 47 38 32 31 32 31 36 37 29 27 24 22 28 27 24 23 18 10 8 9 11 16 23 29 31 30 31 27 31
104 85 83 82 74 70 63 54 38 30 27 24 24 29 32 31 30 29 27 25 23 23 29 23 20 16 13 11 12 11 16 22 29 27 20 16 13 18
85 80 76 70 67 58 47 39 33 25 20 24 25 23 25 26 25 26 25 23 21 25 27 24 23 19 13 15 22 23 19 19 26 17 15 8 4 5
79 71 67 63 54 39 35 29 22 24 24 20 20 23 23 22 22 22 23 27 29 29 29 26 19 18 18 19 12 10 6 13 11 12 12 8 12 17
69 62 55 47 38 30 24 22 24 20 17 18 21 22 21 20 19 21 23 27 34 35 30 23 16 13 14 7 4 4 1 6 10 14 14 4 14 21
59 50 44 41 32 21 25 25 19 17 16 18 20 21 21 20 19 19 22 25 28 28 24 21 18 19 11 8 6 4 4 6 8 9 10 7 17 21
48 43 39 28 21 29 28 19 19 18 19 20 20 21 21 19 18 18 21 24 26 22 22 17 19 14 12 11 9 8 9 10 19 23 23 17 11 24
40 33 20 23 27 24 18 19 18 18 19 21 21 19 19 18 18 18 19 22 24 19 20 15 16 15 14 15 16 15 14 21 17 19 20 23 18 13
31 20 27 27 21 18 19 20 20 22 22 23 22 21 19 16 16 17 17 19 21 15 16 15 17 13 16 19 19 18 18 18 22 21 20 24 23 22
22 26 25 20 21 20 22 23 24 24 25 23 22 20 19 16 15 15 16 16 15 14 11 13 17 13 12 17 17 16 15 16 16 22 14 16 19 16
25 23 22 22 23 23 21 21 20 20 20 21 19 17 16 15 13 12 12 14 11 12 9 7 9 12 9 16 16 13 15 20 19 20 19 17 20 17
22 22 21 20 18 20 22 22 20 19 20 21 19 18 15 13 9 8 9 9 9 8 9 6 6 8 8 15 18 16 13 14 10 23 24 28 27 31
22 20 18 19 21 24 25 25 24 20 17 18 17 16 14 10 8 9 8 8 6 5 4 5 5 8 10 11 16 16 12 14 14 15 21 24 35 34

GFSNE_500_spd_003.txt.gz
Wind_Speed
70 72 71 69 70 71 75 81 85 87 86 92 100 105 110 114 119 124 127 128 125 116 103 95 89 82 80 80 81 82 83 85 85 87 88 88 89 90
74 72 70 70 72 76 81 86 93 98 101 101 108 115 121 126 128 127 119 105 91 84 81 77 72 71 72 75 77 78 80 81 80 81 81 80 79 81
73 71 72 73 77 82 88 95 102 109 114 110 118 124 126 124 114 102 88 79 75 71 67 66 67 71 77 77 74 73 73 72 73 73 75 76 75 77
71 72 75 80 83 88 95 102 108 115 123 127 124 117 105 89 88 83 78 75 73 68 65 66 71 73 68 67 65 64 63 64 64 66 68 68 68 69
73 77 81 85 90 96 103 109 116 122 125 119 108 94 91 87 83 79 76 75 73 70 67 67 66 62 59 60 61 59 56 55 54 54 57 58 60 63
78 82 87 92 99 104 110 118 124 122 108 97 93 89 83 77 75 69 59 59 58 57 54 54 54 57 60 62 60 56 52 48 46 47 48 50 53 57
81 87 93 100 106 112 119 122 114 99 91 86 81 79 75 66 57 48 43 36 34 39 41 46 51 53 55 58 58 56 49 38 35 34 37 41 46 51
87 92 100 106 112 118 116 104 91 86 81 77 72 63 51 43 37 33 31 30 27 37 40 32 40 39 45 47 44 38 32 22 18 20 23 28 32 39
95 102 106 112 116 110 95 86 79 74 67 60 52 44 39 37 33 31 30 26 26 27 26 22 31 33 34 33 28 20 15 13 8 14 21 26 30 35
102 107 111 113 106 90 84 76 70 57 48 47 43 35 34 31 28 28 26 23 23 26 26 24 28 29 27 24 20 13 8 8 17 21 26 33 34 35
105 110 110 100 84 80 71 62 51 43 40 34 36 34 30 31 30 25 21 18 19 26 28 30 30 25 26 22 15 12 10 14 19 21 28 36 32 31
107 103 90 81 76 68 56 52 41 33 31 31 28 28 31 30 27 26 22 20 23 26 34 29 30 28 21 26 17 12 12 19 23 27 33 23 25 28
101 85 77 72 65 53 48 39 33 34 28 24 25 27 28 28 25 26 26 27 28 31 32 26 24 20 16 16 27 14 11 18 20 17 21 21 22 28
84 76 69 61 51 46 34 31 36 28 24 24 24 25 26 26 26 27 26 31 37 36 29 26 27 22 21 18 12 12 14 14 17 18 20 24 20 21
75 67 58 49 44 29 28 35 26 24 24 24 26 26 26 25 25 26 27 29 35 33 30 27 29 21 17 13 11 9 10 15 20 20 18 13 7 13
65 56 45 41 29 28 34 30 26 25 25 24 25 27 25 25 24 24 24 26 30 27 29 27 19 16 21 18 13 14 15 18 20 22 15 1 6 13
57 42 37 28 34 35 32 26 26 28 27 29 29 28 26 25 24 23 23 25 27 23 24 22 19 19 18 17 15 14 18 15 18 17 14 7 8 13
42 35 26 31 30 27 28 29 29 30 30 30 29 27 25 21 22 22 21 20 23 20 21 17 17 16 17 17 17 16 19 13 17 21 27 21 11 12
35 24 29 27 28 28 28 28 26 26 25 25 26 23 22 21 19 18 18 18 19 16 14 18 13 12 14 16 18 16 17 16 17 16 16 24 16 15
26 29 26 28 28 27 24 24 26 26 26 25 24 22 20 18 18 16 14 14 14 14 9 11 13 7 9 13 19 20 19 17 16 16 13 26 20 15
28 26 28 25 24 26 27 28 26 26 25 24 22 21 20 19 17 15 12 9 11 9 7 5 7 6 7 7 12 15 21 24 22 22 21 22 17 19
25 24 23 25 27 27 25 23 24 23 22 20 19 20 19 16 15 13 12 11 11 7 7 2 3 5 9 5 9 8 12 19 24 25 19 23 28 30
22 21 22 23 23 21 21 22 23 23 22 19 17 17 16 15 13 14 14 13 11 7 2 4 4 5 7 11 7 5 7 15 20 26 22 18 23 33

GFSNE_500_spd_006.txt.gz
Wind_Speed
66 67 71 76 76 74 73 76 79 80 77 81 87 93 100 106 112 118 123 128 131 130 123 113 106 96 89 85 83 81 81 82 82 84 84 86 86 90
66 71 76 77 74 74 77 80 83 87 88 90 97 107 112 118 124 129 129 123 115 107 104 99 93 87 84 76 73 70 69 69 70 73 74 76 78 81
71 76 77 75 75 78 80 83 89 96 102 98 107 110 118 124 123 115 107 103 100 94 88 83 82 80 75 73 70 65 65 66 68 69 71 70 72 75
75 78 74 76 78 79 84 91 99 105 111 113 112 117 116 104 95 94 87 84 82 77 71 69 67 64 62 63 63 63 63 64 65 61 56 54 55 60
76 73 76 77 80 85 91 99 106 111 115 120 116 105 93 89 78 65 62 56 51 49 49 49 49 46 45 46 49 53 57 56 52 49 48 48 52 55
73 75 76 81 87 93 98 107 113 115 116 108 97 88 78 58 50 47 41 40 37 38 36 36 37 37 36 39 40 42 44 47 49 50 49 50 50 52
73 76 82 87 94 99 106 112 115 109 97 89 81 66 52 43 41 41 36 32 34 37 31 32 34 34 36 37 37 36 38 42 44 43 43 42 40 40
76 82 89 94 100 105 111 112 103 91 82 72 60 49 35 40 33 34 34 32 27 34 29 30 32 31 34 35 35 34 38 37 33 33 27 22 23 24
83 89 94 101 105 111 109 98 83 75 66 58 43 40 37 31 35 28 26 27 28 29 24 25 32 31 35 37 34 31 32 25 16 10 11 15 19 21
89 95 100 105 111 107 95 80 69 57 49 42 45 37 28 33 32 30 24 21 26 32 31 29 36 31 31 35 30 24 22 17 12 12 16 23 25 26
94 101 105 111 105 92 78 67 52 44 37 42 37 32 33 34 33 28 23 20 23 32 36 33 34 30 31 31 21 19 14 13 16 18 23 27 28 29
98 104 109 103 86 74 65 51 39 31 37 33 32 34 35 34 33 33 31 28 28 31 35 32 29 30 25 28 21 14 10 15 17 20 18 20 25 25
103 106 97 79 71 63 50 39 29 35 32 30 32 31 32 32 32 32 33 34 31 35 36 32 28 25 23 18 17 13 10 16 19 22 27 29 27 28
104 89 75 66 60 47 39 31 36 34 28 30 30 30 29 30 31 32 31 32 34 36 33 30 23 23 21 20 18 17 16 16 17 19 23 27 27 29
82 71 65 56 45 36 32 35 31 27 27 28 29 32 32 31 28 27 29 29 32 31 30 23 20 18 19 19 18 18 18 23 30 26 22 21 16 25
69 62 52 44 33 31 32 30 31 30 29 29 30 32 31 30 27 24 23 23 24 26 24 19 15 16 17 18 20 24 25 26 26 24 21 9 16 21
61 50 40 30 33 32 33 34 32 33 31 31 30 31 31 30 27 23 21 22 20 17 19 15 12 15 16 19 22 23 26 24 23 25 25 10 17 20
49 37 29 32 30 31 30 31 31 32 34 34 33 31 30 28 26 25 21 17 17 15 13 12 8 12 17 22 21 21 22 23 23 25 21 20 13 22
36 29 32 30 30 29 30 32 32 33 32 32 31 29 27 25 24 21 20 18 15 11 8 11 4 6 11 17 21 25 28 22 19 20 22 21 12 21
29 31 30 29 29 30 29 28 28 29 30 29 27 25 22 22 22 20 18 17 13 9 7 6 7 2 4 10 16 22 28 23 29 25 24 23 15 17
29 28 26 27 28 27 25 27 28 29 27 26 24 23 22 20 19 17 16 14 11 8 7 5 6 4 1 7 13 22 25 23 20 29 20 18 17 17
25 26 26 25 25 24 23 26 29 31 27 24 23 24 23 21 18 17 17 16 11 8 6 4 3 2 2 6 10 16 21 23 20 19 18 22 21 24
25 24 24 23 23 20 24 25 27 27 26 24 23 24 23 22 21 19 17 17 14 9 6 3 1 3 4 2 6 11 19 24 17 20 21 28 30 30

GFSNE_500_spd_012.txt.gz
Wind_Speed
53 57 60 62 63 63 66 71 75 74 73 75 77 78 80 83 85 90 95 100 106 112 116 119 119 115 104 96 90 86 84 84 89 95 102 109 112 116
57 61 62 61 64 67 72 74 74 75 76 76 79 83 86 90 94 101 108 114 117 117 113 104 94 82 69 62 61 61 61 62 65 70 76 82 89 95
60 61 62 65 70 72 73 73 75 76 76 75 82 87 92 101 106 112 119 117 106 93 82 71 58 56 53 51 48 47 48 49 51 51 53 56 62 70
61 64 67 69 71 72 74 75 76 80 82 83 87 94 102 108 114 115 107 90 79 67 55 54 50 51 46 44 43 40 40 42 43 42 44 47 47 50
65 67 68 71 72 74 75 77 80 84 88 92 94 102 107 113 108 90 77 66 56 51 53 47 48 47 40 40 38 40 43 44 46 46 45 43 43 44
67 69 71 72 74 75 78 82 86 91 96 102 106 109 109 97 80 68 55 45 49 43 47 46 44 40 39 42 45 45 44 41 38 41 45 46 43 41
69 70 72 72 75 78 82 88 93 99 105 110 112 105 87 70 60 44 41 41 37 43 44 39 38 40 43 47 47 46 47 45 40 43 44 43 41 41
70 70 72 74 77 83 88 94 101 107 110 108 95 79 66 52 35 39 34 32 33 41 42 32 38 38 43 44 45 44 44 45 45 46 48 41 38 39
69 71 74 79 84 89 95 101 107 105 96 83 73 61 47 35 36 32 31 33 34 37 38 30 39 37 40 40 39 40 41 40 38 37 34 36 34 30
70 75 80 84 91 96 102 106 102 86 75 68 56 43 36 39 37 31 31 29 30 34 36 29 35 37 38 34 33 31 30 31 25 23 26 26 27 25
74 80 85 91 97 103 108 98 80 68 59 49 38 38 40 39 34 32 32 31 32 32 34 32 34 33 35 27 21 23 24 21 20 21 24 26 28 30
78 84 90 97 104 104 91 77 62 48 40 40 42 37 39 39 38 38 39 36 35 28 32 29 32 28 25 21 19 23 29 30 29 26 23 26 29 31
84 89 96 102 99 84 72 54 40 36 41 38 39 39 38 38 38 38 39 37 35 29 28 26 27 26 15 14 23 25 27 29 30 31 32 29 22 26
89 96 101 92 77 61 44 38 40 38 38 37 36 37 37 38 39 39 40 39 38 30 24 26 23 19 16 16 20 23 24 29 33 27 27 25 26 27
95 98 84 71 53 40 40 39 36 35 35 35 35 36 36 36 35 34 36 36 34 33 26 22 21 18 14 15 15 20 25 28 29 27 28 28 27 22
93 78 65 50 39 40 37 35 34 33 32 32 33 34 33 33 33 32 29 29 28 30 30 21 19 18 16 14 15 20 27 26 24 24 26 25 18 25
77 61 47 39 38 36 35 32 31 29 31 33 33 31 29 27 28 28 26 24 24 23 24 28 21 16 15 13 16 23 27 27 27 26 24 19 20 23
58 44 36 36 34 31 28 28 28 30 31 32 31 29 29 28 27 28 26 23 21 21 20 20 20 18 14 16 16 19 27 32 25 25 17 13 20 23
40 32 33 33 30 27 25 25 28 31 33 35 33 30 29 29 27 26 24 22 22 21 16 15 17 14 13 14 21 25 26 22 19 24 9 13 18 26
26 28 28 26 24 22 24 27 30 34 37 33 30 29 29 27 27 26 25 22 21 21 19 15 13 10 8 8 13 21 24 19 17 21 7 13 18 28
21 21 22 22 22 23 26 29 31 32 31 30 29 29 28 29 27 26 25 25 20 17 13 12 10 6 3 6 11 20 18 21 17 15 10 15 17 22
15 18 19 21 22 24 26 28 30 31 32 31 30 30 30 27 25 25 25 22 18 14 8 7 4 1 1 7 11 15 15 15 15 15 11 12 17 21
12 15 18 21 22 24 26 29 30 32 34 33 31 30 29 29 28 26 22 15 11 7 3 3 3 1 4 8 10 10 10 13 15 12 12 11 14 14

GFSNE_500_spd_015.txt.gz
Wind_Speed
51 52 53 55 58 61 66 69 71 72 71 70 72 76 78 80 81 81 83 85 89 95 99 104 109 113 116 114 107 95 88 83 80 79 83 88 94 99
51 53 56 58 62 66 68 70 72 73 73 75 78 80 81 83 85 88 92 97 102 108 112 116 117 112 99 83 72 60 56 57 57 57 60 63 67 71
53 56 59 63 66 68 70 70 72 75 78 76 78 81 85 89 92 97 103 108 113 117 113 102 90 77 66 51 48 46 48 47 46 45 43 43 45 47
57 60 63 65 67 68 70 72 75 76 78 79 80 84 91 97 101 107 113 117 108 96 82 73 64 48 45 40 44 46 43 40 41 42 46 48 50 51
60 63 66 67 68 70 73 74 75 77 80 83 86 93 99 105 109 114 106 92 81 71 59 48 45 38 40 42 42 39 37 39 45 48 48 49 52 55
63 64 66 68 69 71 73 75 78 82 85 90 95 100 108 112 107 94 81 72 58 45 44 42 36 39 42 41 38 36 39 43 44 46 48 49 48 49
63 65 67 69 70 71 75 79 83 87 93 98 104 109 106 95 84 73 63 50 41 43 37 37 37 39 40 39 36 36 40 42 44 47 50 53 52 48
63 66 68 69 72 76 80 84 90 95 100 107 109 99 87 74 60 48 39 36 37 38 34 33 38 38 39 37 33 38 39 39 42 47 46 43 36 34
65 66 68 73 77 80 85 89 94 103 107 101 90 76 58 45 38 40 41 39 36 38 38 33 38 39 39 36 34 36 35 31 31 32 31 29 26 24
64 68 73 77 81 85 88 95 103 101 91 77 61 46 42 44 44 42 39 35 34 37 41 34 37 37 36 35 32 32 26 24 24 25 28 31 28 26
67 72 76 81 84 89 97 102 98 82 63 51 47 46 46 46 46 44 41 38 35 32 41 36 37 37 33 34 30 26 22 22 25 27 28 28 28 30
72 76 81 84 89 97 100 93 74 56 48 50 49 47 46 45 47 47 46 44 41 36 41 35 35 39 24 34 28 23 22 25 26 29 32 33 28 28
76 79 83 90 97 99 87 69 53 48 48 46 45 44 43 44 46 47 47 47 44 40 40 36 31 33 31 22 29 26 23 26 27 30 32 32 32 32
78 83 90 96 96 81 64 49 46 44 42 41 40 40 40 42 43 43 43 43 43 43 35 34 29 30 27 25 22 27 27 27 29 31 30 31 28 32
85 91 94 90 73 57 44 43 41 37 37 35 36 38 39 39 38 36 36 36 37 39 36 29 27 25 25 23 21 24 22 25 31 35 30 31 29 29
92 92 82 65 50 40 40 39 34 33 32 34 36 39 39 39 38 37 35 35 33 32 35 31 27 24 19 23 18 19 22 26 30 32 25 28 24 23
90 76 59 43 36 36 34 31 29 31 34 38 41 43 40 37 37 37 35 34 32 30 27 27 29 26 17 19 19 19 21 27 30 25 24 20 17 21
72 54 38 32 30 29 29 29 31 34 38 41 41 40 38 37 35 34 33 32 31 29 26 23 22 21 19 18 13 13 17 24 25 25 22 14 16 20
51 32 26 25 26 26 27 29 31 34 36 38 40 39 35 34 34 34 32 31 29 29 27 22 15 13 13 15 15 17 17 21 22 18 14 15 16 19
28 21 21 22 24 24 25 28 31 34 37 39 39 37 34 34 34 32 31 29 26 26 23 21 12 11 9 9 12 19 19 16 18 20 12 15 15 23
15 16 18 20 20 22 26 29 31 33 37 39 38 35 34 35 35 32 29 27 23 20 17 12 11 8 5 4 10 13 13 17 19 16 13 13 19 25
10 14 16 17 21 23 27 29 32 36 37 40 37 34 35 35 32 28 24 18 15 13 10 9 8 5 4 7 10 10 14 17 19 18 15 13 16 20
9 11 14 18 21 25 27 30 33 35 36 39 36 33 33 33 31 27 22 17 12 10 8 8 7 6 7 8 12 7 14 19 18 14 18 14 15 19

GFSNE_500_spd_018.txt.gz
Wind_Speed
49 50 51 53 54 55 56 58 63 65 63 63 65 66 69 71 73 75 76 77 80 83 87 92 96 99 103 106 109 112 115 115 112 108 104 103 101 100
51 51 53 54 55 56 59 63 65 68 68 67 68 70 71 73 75 78 80 84 88 93 99 104 108 111 112 111 106 98 86 77 70 67 63 61 61 62
51 55 54 55 58 61 63 66 66 68 69 68 70 72 74 77 79 83 87 93 99 104 109 112 113 107 96 85 74 62 54 49 46 47 48 49 50 50
55 55 56 59 62 64 65 65 67 68 70 71 72 74 77 82 86 91 98 103 109 110 107 99 90 77 66 52 42 41 37 39 40 42 44 45 42 43
55 57 60 62 64 65 66 66 67 68 72 75 76 80 84 90 96 101 107 107 99 91 81 69 55 44 41 41 37 34 37 35 36 37 37 39 42 47
59 61 63 64 65 65 65 66 69 73 76 80 83 87 94 100 105 106 95 81 65 55 46 43 40 44 40 36 37 36 34 35 35 34 36 37 40 43
60 62 63 64 64 64 66 70 73 77 81 84 89 96 102 105 101 80 60 45 45 49 46 44 45 40 38 40 37 35 34 36 34 36 36 38 38 41
60 62 62 63 64 67 71 74 80 84 87 92 98 103 103 89 68 51 46 47 45 48 48 41 43 36 40 41 40 36 36 36 36 36 36 36 33 29
60 60 61 63 67 70 74 78 83 90 96 101 104 98 78 60 53 52 54 52 50 47 46 38 40 38 42 41 43 36 36 36 36 35 33 30 28 29
59 60 63 66 70 74 77 83 91 97 102 100 88 69 56 54 55 53 53 51 48 48 49 42 38 35 38 40 44 36 36 36 34 31 29 29 30 30
60 63 66 71 75 80 85 92 98 101 91 74 59 53 52 51 52 51 49 48 46 45 50 47 41 37 38 38 45 38 34 33 32 28 29 31 33 34
63 67 72 77 81 86 93 97 97 80 62 50 51 49 47 47 46 47 47 44 43 38 43 39 38 40 33 33 41 41 32 33 30 28 30 31 32 34
66 71 76 80 86 95 97 91 70 53 45 46 44 44 43 44 44 47 47 45 43 41 43 39 32 31 35 27 32 41 34 30 27 29 30 31 32 37
69 75 79 86 94 94 81 61 45 43 41 39 39 41 43 46 50 50 47 44 43 43 40 40 35 31 28 25 25 32 35 30 24 27 28 32 37 41
74 81 88 92 90 72 53 39 38 37 36 36 39 43 46 48 48 46 44 40 40 41 41 37 34 29 25 21 20 26 28 30 26 26 29 32 36 34
80 90 89 84 65 44 34 33 34 34 35 38 40 44 47 48 47 45 40 38 36 35 39 37 34 30 23 20 18 18 22 20 26 30 34 35 31 32
89 89 80 59 38 29 30 31 30 32 36 39 42 45 47 46 43 42 39 37 35 31 30 32 34 30 25 15 10 15 12 16 25 29 31 25 26 20
91 75 53 31 24 25 26 28 30 34 36 39 42 45 45 41 38 38 38 36 32 28 28 27 25 21 21 20 2 4 6 16 20 20 23 20 13 21
70 46 24 20 21 22 23 27 30 33 36 40 43 45 41 37 37 36 34 30 26 25 25 24 19 11 10 14 9 6 4 13 18 21 26 18 13 21
39 17 14 16 18 20 24 26 30 34 38 41 43 42 37 36 36 34 30 25 19 18 18 17 13 11 6 6 12 15 10 15 19 21 21 20 19 21
13 10 13 15 17 21 24 26 30 34 39 42 43 39 37 36 34 30 25 23 20 17 16 15 14 11 7 7 11 16 18 20 22 15 20 17 19 23
10 11 13 15 20 23 24 24 29 34 40 43 43 39 36 34 30 28 25 23 21 20 19 15 14 12 11 13 14 13 16 19 19 18 17 13 14 20
11 11 14 18 21 24 26 25 28 33 39 41 43 40 35 31 30 29 27 25 22 19 16 16 16 15 15 16 12 10 15 17 15 16 18 23 21 19

GFSNE_500_spd_021.txt.gz
Wind_Speed
43 46 48 51 53 54 56 57 57 55 55 58 61 62 63 65 66 68 70 71 72 74 76 79 83 87 90 94 98 102 106 110 113 115 117 118 117 116
45 48 50 53 54 56 58 56 59 61 63 64 64 64 64 64 66 68 70 73 76 80 85 89 93 97 101 104 109 111 108 107 103 95 89 85 82 81
46 49 54 56 56 58 57 61 63 65 66 66 67 67 67 68 69 72 75 79 83 89 95 99 103 106 107 102 93 82 73 67 63 59 54 51 50 51
50 54 57 59 57 58 62 63 64 65 66 66 67 68 70 72 76 79 84 89 95 101 105 107 105 89 76 61 49 46 46 44 43 42 40 39 40 43
55 56 58 59 61 62 63 64 65 66 66 67 69 71 75 79 83 88 93 99 104 107 99 83 69 53 50 51 51 50 45 40 35 35 39 40 39 39
55 55 59 63 63 63 63 64 64 65 68 71 73 77 81 86 92 96 101 106 95 80 66 58 56 56 54 51 49 46 40 34 35 37 39 36 37 36
55 58 61 61 63 63 64 64 66 69 72 75 77 82 88 95 101 105 101 82 59 57 55 56 60 56 55 52 49 45 39 37 36 38 36 35 35 36
58 58 60 62 62 63 64 67 70 75 79 82 86 92 99 104 102 89 67 55 50 55 55 53 57 51 51 51 48 46 43 40 38 40 37 37 36 35
56 58 60 61 61 64 66 70 74 79 85 90 94 100 102 95 74 57 54 51 48 49 47 43 47 45 48 48 49 48 48 43 41 42 40 37 37 36
57 59 59 61 64 66 69 73 78 85 91 98 103 97 78 59 55 50 45 43 44 47 51 44 44 41 41 41 45 47 50 45 39 40 39 39 37 36
58 58 61 63 66 69 73 78 85 94 98 97 82 62 52 50 47 44 47 47 47 48 54 49 44 41 38 40 41 43 48 47 37 38 38 37 36 35
57 60 63 66 70 75 80 86 93 97 86 63 51 48 46 45 47 50 51 51 51 47 51 45 41 41 32 34 36 40 44 46 38 34 35 35 35 33
58 63 66 70 76 83 88 94 93 73 49 41 41 41 44 46 49 52 55 56 53 49 47 44 37 34 33 31 28 35 42 41 36 29 31 34 32 30
62 67 72 77 82 89 95 87 62 39 36 37 37 40 42 46 50 53 55 54 51 47 41 41 33 30 31 31 26 27 35 36 33 29 25 28 28 30
66 72 77 82 89 94 78 50 31 32 32 34 37 40 44 48 52 52 51 47 43 44 42 38 31 29 33 31 20 22 27 31 28 21 19 23 27 32
72 78 84 89 90 65 37 28 28 29 31 34 37 43 47 50 51 48 43 42 40 37 40 36 30 29 29 27 18 14 21 19 22 18 16 22 29 33
77 82 88 84 57 29 24 25 26 28 32 36 41 44 48 48 45 43 42 39 36 31 25 26 27 28 29 22 10 7 11 11 11 16 19 20 27 30
80 84 77 45 20 21 22 25 25 28 33 39 43 47 45 42 38 38 36 32 28 24 21 19 19 17 22 20 5 2 3 6 12 16 18 18 21 22
82 70 37 15 18 18 21 24 24 28 34 40 44 45 41 36 31 29 28 25 22 21 21 18 16 12 12 13 11 8 8 7 13 20 20 15 10 17
62 29 14 15 16 19 22 23 24 29 35 40 43 41 36 31 28 27 26 23 21 20 19 17 14 13 10 11 16 18 9 14 15 15 16 19 16 20
20 14 13 15 17 20 21 23 24 29 34 38 41 39 33 29 28 28 27 26 24 21 20 20 20 18 16 16 15 15 15 18 17 13 13 15 18 21
10 11 12 15 18 21 23 24 25 29 33 36 37 37 32 29 28 27 26 24 23 23 22 22 20 20 18 15 13 12 15 18 18 18 17 18 16 19
9 9 12 15 19 23 25 25 25 27 31 33 32 35 31 28 29 27 24 24 23 21 21 24 25 22 21 14 9 13 17 19 19 21 23 20 18 16

GFSNE_500_spd_024.txt.gz
Wind_Speed
43 44 45 46 48 49 52 54 56 57 57 57 57 59 60 62 64 65 66 67 69 70 72 73 74 77 79 81 84 86 90 94 97 98 100 103 106 109
43 45 46 48 51 53 55 58 60 61 60 61 63 64 64 64 64 66 67 68 70 72 75 77 81 84 87 90 93 96 99 102 104 107 107 106 104 103
44 45 48 51 54 56 60 64 62 62 63 64 66 67 67 68 67 68 69 71 74 79 82 85 89 94 96 98 102 105 105 100 93 84 74 68 67 68
41 45 49 53 60 63 64 62 64 67 66 67 67 68 67 68 70 71 74 78 82 87 90 95 99 103 107 108 104 92 78 65 57 58 57 58 59 58
48 50 54 59 61 63 60 63 67 67 68 69 68 68 70 72 73 77 80 85 91 97 101 104 108 104 92 77 66 61 58 57 57 57 54 53 52 47
51 54 56 58 59 61 64 66 67 68 68 68 69 71 73 76 80 83 87 94 100 104 105 101 81 67 64 63 62 61 61 61 61 59 51 49 44 45
57 55 54 58 61 63 64 65 66 66 68 70 72 74 78 83 88 93 98 102 99 86 73 62 61 58 57 55 54 54 55 55 56 54 50 47 44 44
51 52 57 60 61 63 64 65 66 70 72 75 76 81 86 91 96 101 101 88 64 57 56 50 53 50 52 53 53 55 55 54 51 50 51 46 45 43
52 56 58 59 61 61 62 66 69 73 77 81 85 89 94 100 99 85 63 53 49 51 52 48 55 52 56 55 55 56 55 52 50 48 51 47 47 44
54 56 57 57 58 62 66 68 72 76 81 87 93 99 101 88 67 51 47 46 49 53 59 54 57 56 57 52 52 53 51 50 49 47 47 44 48 45
54 54 55 58 63 65 68 71 76 82 89 95 100 94 70 51 48 45 52 53 52 54 62 62 60 58 54 46 47 49 51 50 48 45 41 39 44 46
54 55 59 62 64 69 73 76 82 88 94 96 75 52 46 45 49 52 54 57 60 59 63 62 54 51 43 37 38 42 46 48 46 43 38 34 38 42
54 58 61 65 68 73 78 82 86 91 83 55 40 41 44 48 51 56 60 63 62 58 55 55 46 43 38 31 31 35 40 42 43 40 34 28 31 36
56 60 64 68 72 78 81 85 87 70 40 36 36 39 43 49 54 58 60 58 54 53 49 50 43 37 28 24 23 31 37 38 37 36 29 21 21 30
60 64 68 72 76 80 84 81 59 32 32 33 35 40 45 50 55 54 50 48 45 47 48 45 36 27 24 20 21 27 27 28 33 29 22 14 15 22
65 69 73 75 79 83 73 47 27 28 30 31 35 42 48 52 50 47 41 40 37 34 38 37 30 26 24 24 18 13 19 20 23 13 7 7 10 14
70 74 77 80 81 64 36 24 24 27 30 32 37 43 48 45 42 39 35 33 32 27 23 26 29 28 27 17 5 11 12 14 10 10 8 10 15 18
75 78 81 77 53 26 23 22 25 27 28 32 38 42 43 38 34 32 31 29 28 26 22 20 18 19 22 18 8 6 13 10 12 14 14 14 19 25
81 82 67 36 19 20 20 23 24 25 27 31 36 39 40 34 32 30 28 25 25 25 24 23 22 18 16 19 21 16 9 12 13 18 21 20 17 23
75 51 22 16 16 18 21 23 25 26 27 30 34 36 37 33 31 29 26 22 22 23 24 26 25 23 20 17 16 21 11 11 17 17 19 20 18 18
34 12 11 12 16 19 22 24 24 25 26 28 32 33 35 33 30 27 25 25 24 25 26 28 28 25 20 18 18 17 17 17 14 15 17 20 23 26
4 6 8 12 16 20 24 26 25 24 25 26 30 31 32 32 31 29 27 25 26 27 27 28 28 24 18 17 15 17 19 23 28 27 24 19 20 22
2 4 9 14 19 23 25 25 24 24 24 24 28 29 30 30 31 31 30 28 25 26 28 29 28 25 22 20 20 21 23 23 24 25 31 31 27 24

GFSNE_500_spd_027.txt.gz
Wind_Speed
45 44 44 44 46 47 49 50 52 54 56 57 61 64 63 62 63 66 67 67 68 69 70 71 72 73 74 74 75 77 78 80 82 85 87 90 92 94
44 45 42 44 47 48 49 52 55 58 62 61 65 67 65 66 67 68 69 70 70 70 71 73 74 76 78 80 82 84 87 89 92 94 96 97 99 100
52 54 43 46 49 50 54 57 61 65 64 66 69 66 68 69 70 71 71 72 73 75 76 78 80 82 85 87 90 93 96 98 99 102 103 103 102 100
46 42 49 48 51 54 57 62 62 62 63 63 67 69 70 70 71 71 72 74 77 80 83 85 88 92 95 97 99 102 104 104 99 92 85 77 73 70
45 48 51 51 54 56 59 64 65 62 65 67 70 70 69 70 71 73 75 78 82 88 92 95 99 103 105 105 103 95 85 76 70 67 65 64 63 62
50 45 49 55 55 58 64 64 64 66 67 69 70 70 70 72 74 77 78 84 89 95 101 105 104 97 85 78 68 63 61 60 59 57 56 55 55 56
51 51 55 58 62 62 61 64 66 67 67 69 69 70 74 77 79 83 87 91 97 103 99 84 72 65 63 61 60 60 60 60 59 58 57 55 54 52
50 52 59 60 62 61 62 65 66 67 67 69 72 75 78 81 85 89 94 100 94 72 61 56 58 58 61 62 63 64 64 65 64 62 59 57 55 54
53 57 55 57 59 62 64 64 64 67 70 73 75 78 81 85 89 94 96 78 55 56 58 55 63 62 64 65 66 66 68 68 67 65 61 57 54 52
47 49 53 56 59 60 61 63 66 69 72 76 80 83 86 91 93 81 54 50 53 59 66 64 68 68 67 64 61 62 62 61 60 57 54 49 47 45
51 53 54 56 57 59 62 63 67 71 76 80 83 88 90 83 61 48 51 54 57 62 68 70 62 58 54 47 46 49 52 54 53 49 43 42 40 38
51 52 54 56 59 61 64 67 71 75 78 84 89 87 68 48 48 51 55 60 65 58 56 52 47 46 35 30 33 39 45 48 49 46 41 36 36 39
51 54 57 59 62 65 69 73 76 79 83 86 78 51 43 44 49 54 60 62 52 47 47 43 33 32 31 24 22 31 38 40 41 38 39 40 38 30
52 56 59 62 66 70 74 76 79 83 82 64 38 38 40 45 49 55 55 48 43 41 40 39 34 32 27 23 20 24 31 33 35 37 39 36 27 20
56 61 65 69 73 76 79 81 83 72 47 32 34 36 39 44 49 49 44 41 39 39 38 37 34 32 30 26 18 23 27 29 34 30 24 18 13 9
64 69 74 78 80 83 83 78 58 33 28 30 32 34 38 42 46 42 40 39 37 36 35 32 32 30 27 25 23 23 23 20 22 18 12 9 7 6
73 79 84 87 84 75 62 37 22 25 26 29 30 33 36 40 42 39 38 35 33 30 30 31 32 31 31 28 18 21 19 20 21 16 12 13 12 10
85 89 87 74 61 40 19 17 21 24 27 29 31 32 35 37 39 37 36 34 31 31 31 29 29 30 30 30 34 29 23 22 21 18 15 18 21 25
81 77 59 41 18 11 15 18 22 25 27 28 29 30 33 35 36 36 35 34 32 31 33 33 32 32 28 23 26 34 20 12 20 21 27 28 18 23
69 47 27 9 9 12 16 20 24 27 27 27 28 28 32 32 33 35 35 33 31 31 33 35 35 34 32 26 21 23 26 21 17 16 19 25 27 25
39 17 9 10 12 16 20 24 27 26 27 26 27 27 31 31 32 35 35 35 33 33 35 37 37 37 35 29 24 25 27 32 32 28 24 21 23 28
16 11 11 13 17 21 25 27 25 24 26 26 26 27 30 32 31 32 34 35 36 36 35 35 35 32 31 29 26 26 26 28 33 36 36 29 31 28
14 14 16 18 21 23 25 24 24 24 25 27 27 28 28 31 31 32 33 34 35 33 32 31 33 34 33 32 30 27 25 27 28 29 34 39 41 42

GFSNE_500_spd_030.txt.gz
Wind_Speed
46 53 44 47 49 50 46 47 46 50 52 53 56 57 58 61 61 62 65 65 65 68 70 71 71 70 71 71 72 73 74 75 76 78 79 80 81 83
48 49 53 50 53 46 51 54 50 53 55 56 58 60 61 63 63 65 66 69 71 71 70 71 71 72 72 74 76 78 80 82 84 85 87 89 90 91
50 49 54 47 51 52 53 52 51 52 58 58 59 62 65 63 64 68 71 72 71 72 72 74 75 77 78 80 83 85 87 90 93 95 98 99 100 100
52 52 53 57 53 51 52 53 60 59 61 60 66 66 65 67 68 70 70 70 72 74 77 78 80 84 86 89 93 97 100 102 104 104 104 103 103 102
52 52 59 58 53 59 58 55 58 60 63 67 68 67 68 69 68 69 69 72 76 78 80 84 87 91 95 100 103 97 88 80 73 69 66 64 63 63
52 58 57 57 49 49 50 56 62 64 69 69 68 69 69 69 69 71 72 76 77 82 86 90 95 99 99 85 66 61 62 62 62 62 62 60 59 58
60 45 55 53 53 60 60 62 65 67 69 70 70 68 67 69 72 73 75 77 82 88 92 95 87 72 65 65 67 70 71 70 70 69 67 65 63 61
53 50 56 57 59 60 60 61 65 66 69 68 67 67 69 71 73 76 79 82 86 90 84 64 62 64 68 70 73 75 76 75 74 73 72 70 68 67
49 59 59 57 57 56 56 59 63 65 66 66 67 70 71 74 77 80 83 87 83 66 57 56 66 67 69 64 62 64 67 67 67 65 63 62 61 61
53 57 50 51 52 56 59 61 61 64 66 68 72 73 75 78 81 83 83 70 51 56 61 59 63 52 50 49 53 56 58 60 61 61 59 54 49 47
43 44 47 50 55 59 60 61 63 67 70 73 76 78 80 81 83 76 53 46 48 54 62 51 44 40 40 42 47 49 50 50 51 49 43 38 32 30
41 44 48 51 54 57 60 64 67 72 75 79 81 82 82 79 62 44 43 45 48 51 47 37 38 38 31 31 37 42 45 47 47 44 40 35 28 22
42 46 50 53 58 63 67 72 76 80 83 84 82 79 69 46 38 40 43 45 49 44 43 39 32 32 31 31 28 36 39 39 40 40 38 36 34 32
44 48 53 58 65 71 76 81 86 87 82 76 67 52 35 34 36 39 43 47 48 42 43 33 30 33 32 30 31 32 36 33 30 26 24 23 22 19
47 53 60 67 73 78 82 81 77 68 57 41 28 27 30 32 35 38 42 45 46 43 42 35 32 36 38 37 35 35 33 30 34 26 26 23 19 19
55 61 68 74 78 76 76 69 53 34 20 20 23 26 30 33 35 36 39 41 40 40 41 38 36 37 38 38 38 37 36 25 28 29 31 26 19 15
63 68 73 72 67 69 55 36 18 17 20 22 25 28 30 31 33 36 38 39 38 37 37 38 38 39 40 40 36 38 37 31 25 26 19 19 21 23
66 68 62 59 58 40 23 17 18 20 22 25 27 28 29 30 31 35 37 37 36 37 36 35 36 36 39 40 43 37 35 30 22 23 26 22 23 32
64 55 54 47 26 19 18 19 21 25 28 28 28 28 28 29 30 34 35 35 34 35 37 35 35 37 36 33 36 45 36 29 23 24 23 25 24 26
52 49 39 24 22 21 23 26 28 30 29 27 27 28 28 29 31 34 35 34 34 34 36 39 39 40 39 35 29 31 39 34 30 29 30 27 27 27
43 36 28 23 24 26 28 29 29 29 27 27 28 29 29 29 31 33 33 34 35 36 37 40 40 41 41 40 36 32 32 34 33 30 28 29 27 29
34 27 25 27 26 26 29 30 30 28 28 28 29 29 29 30 32 32 34 34 34 37 39 42 39 37 38 38 34 32 30 28 31 33 35 35 34 33
27 24 27 28 29 30 31 31 30 30 29 30 30 30 30 31 33 34 34 36 37 37 37 38 35 36 37 35 34 35 31 32 30 29 31 29 29 32

GFSNE_500_spd_033.txt.gz
Wind_Speed
49 46 46 46 47 49 49 49 53 50 50 51 51 56 55 53 55 54 56 58 62 67 65 65 67 68 69 68 69 69 69 70 72 74 75 77 78 79
52 48 46 47 48 49 51 54 54 53 52 50 55 54 54 58 58 61 64 68 68 67 68 69 70 69 67 67 69 71 73 74 76 79 81 84 86 88
48 51 50 50 50 54 53 50 56 55 51 52 58 58 63 64 63 64 68 71 70 70 71 70 70 69 70 71 72 73 76 80 84 88 91 95 97 99
59 54 53 54 54 63 54 51 56 50 52 54 61 64 65 66 69 70 73 71 71 72 71 72 72 72 74 75 77 80 85 90 95 99 101 99 96 92
59 55 52 53 59 59 59 54 60 61 54 55 56 58 61 66 71 72 71 72 72 72 74 74 75 77 80 82 85 90 94 93 84 74 69 70 71 71
53 54 54 55 57 67 60 58 60 58 62 62 57 62 63 68 72 73 72 71 71 75 77 78 80 84 87 89 89 82 73 68 71 74 76 77 78 77
49 51 53 60 60 62 62 62 62 68 66 60 63 63 65 69 72 71 70 71 73 78 80 83 86 90 88 77 67 67 69 71 66 60 57 57 57 59
48 51 52 61 62 61 64 60 64 62 61 62 65 63 67 68 69 71 72 74 77 83 84 85 88 75 61 62 67 69 62 54 50 45 41 40 42 45
48 48 58 56 54 60 63 50 54 58 63 64 62 64 67 70 72 75 78 81 82 85 86 80 65 51 58 62 58 55 53 50 43 39 39 35 35 36
47 40 54 46 49 45 48 51 54 55 58 62 66 71 74 78 81 83 85 85 83 78 67 47 48 50 54 52 53 52 50 44 40 40 38 34 30 29
37 42 40 44 45 47 48 50 53 58 63 69 74 78 82 85 86 84 81 74 59 46 46 40 48 49 45 47 47 44 45 44 44 42 40 37 36 32
33 37 40 42 44 46 50 54 59 65 71 77 82 84 81 79 76 69 54 39 35 38 43 41 47 44 36 37 38 41 45 46 44 44 40 36 35 34
32 34 37 41 46 51 57 62 67 73 79 81 77 75 71 64 49 32 30 33 36 40 43 41 43 39 35 32 37 41 42 43 43 42 42 37 33 29
32 37 42 47 53 58 62 66 72 72 67 67 62 52 38 26 26 29 32 35 38 39 42 44 38 36 34 32 34 38 42 44 42 37 37 37 34 26
36 41 46 50 55 60 62 63 60 60 56 43 29 22 24 26 29 32 34 35 37 39 42 42 37 34 33 31 33 38 39 40 41 33 30 32 34 27
39 44 50 55 61 62 58 51 47 37 26 23 24 25 28 30 32 32 33 32 35 39 41 40 37 36 33 35 38 37 38 33 33 27 24 26 27 25
45 51 55 59 57 49 43 36 28 28 26 28 30 31 31 31 31 31 30 31 34 35 36 38 37 35 35 37 37 39 35 32 31 25 23 25 29 25
49 54 57 54 45 38 32 29 28 31 32 33 33 31 30 30 30 31 31 31 33 35 35 35 35 35 35 37 45 45 38 32 30 30 26 24 27 32
53 57 58 47 38 33 30 30 30 31 32 32 31 30 30 30 30 30 30 31 32 34 36 37 38 38 33 29 34 44 40 34 27 25 25 24 25 30
57 61 51 37 32 30 31 31 32 33 32 30 30 30 30 30 30 30 30 31 31 32 33 36 38 40 39 32 27 31 40 35 31 29 28 28 27 28
62 56 36 29 28 30 30 31 31 32 32 32 31 31 32 31 31 31 31 33 33 33 33 35 39 43 43 38 36 32 32 40 38 37 31 25 24 27
60 38 28 25 27 27 27 27 30 31 32 31 32 31 32 32 32 32 32 31 33 34 33 35 38 42 40 36 35 32 29 33 39 38 39 34 24 23
45 31 27 26 26 25 26 27 29 31 32 33 34 33 32 31 32 33 33 33 34 34 34 34 36 40 39 36 38 37 35 35 33 32 34 38 37 32

GFSNE_500_spd_036.txt.gz
Wind_Speed
61 60 57 55 54 51 50 48 49 52 53 54 59 55 54 59 60 60 60 59 57 59 63 63 64 64 66 69 69 71 72 73 74 75 76 76 75 75
61 58 58 57 56 58 55 46 52 52 58 59 61 52 59 64 63 63 60 64 62 65 69 67 69 71 73 71 73 74 76 76 74 75 76 77 78 79
61 57 54 56 48 51 46 48 57 60 57 60 65 60 59 65 63 62 63 63 66 69 70 72 73 72 72 75 77 77 75 75 76 77 80 82 83 86
62 60 59 59 59 68 59 59 62 59 61 62 64 57 65 66 64 66 65 62 62 64 68 70 71 72 76 77 76 76 75 77 80 83 86 87 91 95
62 62 62 59 57 60 56 60 61 61 67 62 64 66 64 69 69 67 65 64 67 71 69 69 72 73 74 76 77 79 81 84 87 90 91 92 87 78
59 62 62 59 56 61 58 60 62 64 65 69 69 65 65 70 67 66 67 68 71 69 70 69 73 77 79 81 83 86 89 91 91 85 73 65 67 62
50 53 50 52 48 51 50 59 62 63 57 57 62 67 65 58 60 65 67 67 66 71 73 75 79 83 85 88 90 90 89 80 67 57 59 54 51 53
40 44 49 48 48 52 58 59 60 66 66 67 58 54 60 63 63 63 67 70 72 79 80 83 88 88 89 86 80 72 62 54 53 55 48 47 46 47
36 35 39 43 46 50 50 56 62 52 52 53 55 58 61 62 66 69 75 79 83 86 87 85 86 78 69 57 53 53 53 53 53 47 43 41 42 43
33 40 38 45 46 49 44 48 50 49 50 52 55 59 64 69 73 77 83 85 84 83 81 76 63 48 42 48 53 54 54 51 46 41 41 41 42 42
32 36 37 43 42 45 43 44 46 50 54 59 62 65 69 75 79 81 79 77 75 68 55 36 36 36 41 48 52 52 50 46 42 40 42 44 43 42
31 31 33 35 37 41 42 45 50 54 58 63 67 70 73 74 74 72 68 55 39 29 29 31 38 39 36 43 46 46 45 43 41 42 45 45 44 41
23 27 31 31 35 40 44 49 54 59 63 65 68 69 66 62 54 42 32 29 30 32 33 33 35 37 38 36 38 41 42 40 40 45 46 46 44 41
23 27 31 35 40 45 49 53 57 60 63 63 60 53 44 36 32 32 32 34 35 36 36 33 32 36 35 33 34 35 37 37 39 42 44 44 42 39
28 32 36 40 44 49 54 56 61 60 55 49 43 39 37 35 36 37 37 36 35 34 33 32 33 34 34 32 32 34 33 33 38 39 38 38 37 35
34 37 39 43 48 53 55 60 56 47 41 38 37 37 37 36 35 34 33 32 33 34 34 34 37 36 35 35 35 34 35 33 32 35 32 31 34 33
38 40 43 46 52 56 62 54 43 38 36 36 36 37 36 35 34 33 33 32 32 32 34 35 37 38 37 37 36 38 35 31 31 33 29 25 34 35
41 45 46 50 55 61 55 39 34 34 35 37 37 35 34 33 33 33 33 33 32 32 33 35 37 37 36 37 42 42 39 35 31 32 33 28 27 35
44 44 48 54 60 59 40 32 30 30 32 33 33 33 32 33 33 34 35 33 33 33 34 36 37 38 35 31 35 44 37 34 32 29 31 30 29 31
44 46 51 59 60 42 32 29 26 25 27 29 30 31 32 33 34 34 34 34 34 34 34 36 39 38 38 35 31 37 43 41 35 30 31 32 32 29
48 50 57 60 45 34 30 29 27 26 28 32 33 33 34 33 34 34 35 35 35 36 34 34 37 39 40 39 39 38 38 41 39 36 33 31 26 28
49 54 62 52 34 31 30 30 30 29 30 33 35 36 37 36 36 36 36 36 37 37 36 34 34 36 38 41 40 37 33 35 39 40 40 38 31 21
52 61 54 38 31 32 33 32 33 35 35 37 39 39 40 40 40 39 40 39 39 38 37 33 32 35 36 40 41 39 37 34 34 33 36 41 33 26

GFSNE_500_spd_039.txt.gz
Wind_Speed
64 62 61 63 61 61 63 65 64 61 54 58 57 52 51 54 54 54 60 62 56 58 61 63 66 66 64 65 64 67 67 69 69 69 71 72 72 72
65 63 61 59 59 60 56 63 58 61 61 62 59 47 53 56 57 63 61 63 53 55 61 63 62 64 67 70 70 70 70 71 74 75 75 76 76 77
66 66 63 62 59 58 59 59 56 50 51 53 50 49 55 56 59 59 62 67 67 65 65 64 65 66 71 70 68 68 70 73 76 76 75 76 77 79
62 64 65 62 60 56 58 57 58 55 59 60 57 56 58 56 67 68 70 64 68 65 65 70 70 70 72 71 73 73 73 72 74 75 77 79 80 82
57 59 60 60 59 58 58 61 56 61 62 64 60 58 62 64 65 67 73 74 72 68 70 65 63 64 68 72 74 72 74 75 78 80 83 85 88 89
50 54 57 57 57 58 59 60 61 62 62 63 70 61 62 65 66 68 68 69 64 60 61 63 65 67 69 71 73 77 80 83 85 88 90 90 89 84
42 46 50 50 52 53 47 57 55 52 57 61 59 61 65 67 69 68 62 60 60 62 63 66 68 71 75 79 82 85 87 88 88 87 83 73 62 54
37 40 40 44 38 36 46 51 50 56 57 62 63 63 65 69 60 61 59 60 64 69 70 73 76 78 82 85 85 84 83 80 74 62 52 47 48 52
28 32 29 33 40 36 40 43 45 46 51 55 54 56 56 55 58 60 63 67 71 75 76 78 79 78 78 78 76 68 59 51 46 45 46 47 49 47
18 20 25 20 26 31 40 42 46 53 50 47 49 52 55 58 62 65 68 71 75 77 76 72 73 65 54 47 42 40 42 44 45 46 46 45 42 40
13 17 22 28 31 35 40 45 47 43 45 49 53 56 60 63 65 68 70 71 70 67 62 51 43 35 33 37 39 42 44 44 45 44 41 39 39 38
16 23 29 31 29 30 31 33 38 44 49 52 56 60 63 65 66 66 65 58 52 45 40 37 38 36 33 37 39 41 43 45 42 41 42 41 38 37
15 17 19 22 26 30 35 38 43 48 53 56 58 62 65 64 59 55 50 46 45 44 42 39 40 40 36 32 34 41 41 42 41 42 41 40 40 43
19 22 25 29 33 36 39 43 47 52 56 59 63 64 55 50 47 46 45 45 44 43 42 39 35 35 34 32 32 36 37 37 39 38 37 38 40 43
24 28 32 36 40 42 44 48 52 55 60 64 61 51 45 45 45 44 42 39 37 36 36 35 33 32 32 31 30 34 33 32 37 36 36 35 38 40
31 34 37 40 42 45 48 51 54 60 63 61 48 41 42 43 43 40 38 36 35 36 36 35 35 33 32 33 33 33 35 33 32 34 33 31 34 37
35 38 41 43 46 48 49 53 58 64 59 45 39 37 35 36 37 36 35 35 35 36 37 37 36 35 35 35 34 35 36 35 34 31 30 27 30 35
38 41 44 45 48 51 53 57 63 57 44 37 34 31 31 32 33 34 33 34 35 36 36 38 38 38 37 35 39 36 37 38 36 31 30 26 28 38
42 43 45 47 49 51 57 64 56 42 36 34 32 31 30 31 33 35 36 35 35 36 36 37 38 41 37 33 35 40 37 38 35 29 31 31 28 33
43 44 47 50 52 57 64 56 41 36 35 35 34 34 33 34 35 37 37 37 38 38 37 38 40 41 39 36 30 33 41 40 37 33 33 32 32 34
44 47 50 53 57 64 51 41 36 36 36 36 38 39 40 40 41 41 40 41 41 41 39 38 40 42 40 37 32 30 35 41 42 39 36 33 31 28
46 49 52 57 64 51 43 38 37 39 40 39 39 41 43 44 44 43 43 43 42 42 42 41 40 41 41 39 33 31 31 35 41 42 45 43 39 27
47 50 54 61 51 45 41 39 40 42 44 44 44 44 45 45 46 46 46 46 45 44 46 43 41 41 39 37 34 32 33 35 39 37 41 44 42 37

GFSNE_500_spd_042.txt.gz
Wind_Speed
68 69 66 63 63 61 59 57 56 56 56 55 56 57 55 50 59 51 49 47 45 51 53 60 62 60 58 54 54 59 63 62 59 62 67 68 69 68
68 67 67 64 62 62 61 58 55 54 53 53 57 61 57 49 49 42 46 44 51 54 58 52 52 54 56 57 58 61 62 65 66 67 69 69 70 71
65 65 62 60 58 59 59 59 59 57 58 59 53 56 50 45 43 43 50 55 56 58 64 63 60 62 67 68 67 65 66 70 72 73 72 73 76 77
56 61 57 55 57 60 59 59 59 60 61 65 60 58 49 46 43 46 48 61 56 63 62 63 65 69 64 63 67 72 71 66 66 67 70 73 76 78
46 48 53 53 52 54 54 55 57 57 61 59 62 58 62 56 52 55 64 60 61 64 64 66 68 68 69 69 66 65 64 63 65 67 69 71 74 76
37 40 40 48 48 47 50 49 53 55 57 58 58 59 59 58 58 63 62 62 67 65 67 65 65 60 60 61 62 64 67 70 72 73 76 79 81 84
30 31 35 43 46 45 43 45 46 47 49 53 54 54 52 53 56 58 58 61 59 57 57 59 60 62 65 68 69 71 73 77 78 80 82 84 85 85
25 23 31 34 34 38 43 39 39 40 47 55 56 51 50 51 52 54 56 53 55 58 60 64 64 67 70 72 73 74 75 77 77 77 76 74 71 62
21 24 25 21 24 27 33 36 35 39 39 38 44 46 49 51 50 52 55 57 60 63 63 66 68 69 71 71 70 68 66 63 60 56 51 47 44 44
19 14 15 12 16 19 24 21 24 29 33 38 41 40 43 48 52 56 59 60 63 65 66 68 67 64 60 57 52 48 46 43 42 42 42 42 42 44
11 10 10 11 17 21 24 28 28 29 30 33 37 42 46 51 55 59 61 65 68 67 64 58 55 51 48 48 46 45 44 44 44 43 40 41 43 42
14 16 21 19 19 20 23 25 29 32 35 39 42 47 52 56 60 62 65 65 59 54 50 49 49 46 44 46 45 44 43 43 41 40 41 42 41 38
19 19 21 21 23 26 29 32 35 38 41 43 49 52 55 58 61 63 60 53 49 50 49 46 45 43 39 35 38 39 40 40 39 41 40 40 40 42
21 22 23 26 29 32 35 38 40 42 46 49 50 55 59 63 63 55 46 45 46 45 43 40 38 37 35 34 34 36 37 38 38 37 37 37 40 41
27 28 30 33 35 37 40 42 44 47 48 51 55 59 63 62 51 42 40 38 37 37 37 36 36 36 35 34 33 36 33 33 36 34 33 33 37 40
32 33 35 37 39 41 43 44 47 49 51 56 60 65 59 47 39 36 34 32 31 32 32 34 34 34 33 33 33 33 35 33 33 33 30 31 35 40
33 35 38 41 42 42 44 48 50 54 58 63 61 51 42 38 37 34 33 32 32 33 34 35 35 35 34 33 32 35 34 34 35 31 29 28 34 39
37 39 41 42 42 44 47 49 53 59 64 56 46 41 38 38 37 36 35 35 35 35 35 37 38 38 38 35 37 34 34 36 36 33 32 30 28 35
39 40 41 42 43 46 48 51 61 59 48 47 43 39 39 39 39 39 40 41 41 41 40 40 41 42 41 38 36 37 39 36 35 34 35 31 27 30
40 41 42 44 46 49 51 57 59 51 45 43 41 41 42 42 42 43 45 45 44 45 44 44 45 45 45 45 40 34 40 37 37 34 33 29 29 29
40 41 44 46 48 53 54 58 53 49 45 43 43 44 46 47 46 46 46 46 46 46 45 46 47 47 48 48 45 38 36 39 39 37 33 30 28 29
40 42 45 49 51 54 58 58 51 49 47 45 45 47 49 50 50 49 48 48 47 47 47 47 47 47 48 50 46 37 34 36 38 38 36 37 32 27
42 45 48 50 52 55 59 56 50 50 49 49 49 48 49 48 47 47 46 46 47 47 48 47 47 48 47 50 43 34 35 34 35 33 35 41 42 41

GFSNE_500_spd_045.txt.gz
Wind_Speed
68 71 72 71 72 70 68 67 65 64 61 60 57 53 46 59 52 60 58 56 53 49 50 49 45 45 44 49 53 56 58 55 58 53 58 59 57 55
66 65 64 67 66 67 64 64 66 65 64 61 60 44 59 55 53 54 44 47 44 42 46 42 43 43 47 51 55 58 59 56 58 61 65 65 64 61
49 46 52 57 59 56 59 53 55 60 61 59 60 59 56 55 47 49 58 39 39 35 43 48 48 50 56 60 58 57 59 59 62 64 65 63 63 65
46 45 47 50 48 47 51 58 54 55 54 52 54 58 57 56 65 40 35 51 60 59 52 55 58 54 56 55 59 64 61 64 67 68 67 67 68 71
46 43 44 42 40 40 40 39 46 47 47 51 50 51 46 36 47 55 62 58 56 56 56 58 62 60 59 60 59 60 59 55 57 59 61 60 61 64
42 39 36 37 36 34 34 31 34 36 42 47 43 38 48 57 58 53 56 57 53 51 53 54 53 53 52 52 53 54 56 60 61 63 64 65 66 69
33 34 31 28 26 26 27 29 31 34 37 43 53 47 41 45 51 54 51 46 49 50 50 49 48 51 54 56 57 59 61 63 65 67 68 70 71 74
32 30 29 23 21 19 13 24 29 37 37 36 37 37 42 43 46 49 55 44 41 46 49 53 54 57 58 59 60 63 66 68 69 70 70 71 72 72
24 26 23 20 18 15 18 16 16 21 27 35 38 37 35 35 38 42 43 44 48 52 53 58 59 62 62 63 64 65 65 64 62 60 57 55 54 53
21 22 25 21 20 20 19 19 14 15 19 23 26 29 33 36 39 42 46 50 54 57 58 61 61 64 64 63 61 59 56 53 51 50 48 47 47 47
19 19 19 20 20 20 19 20 20 22 23 26 30 34 38 42 45 49 52 55 58 59 60 62 62 58 54 54 54 52 50 48 47 46 46 46 45 42
18 19 20 21 22 23 24 25 27 29 31 33 35 38 41 45 49 51 53 57 61 63 61 55 51 48 51 52 49 46 44 42 41 42 42 40 39 39
21 23 24 24 25 26 28 29 31 33 36 38 41 43 46 48 50 53 57 61 62 57 51 44 46 45 43 41 43 41 41 41 42 43 41 39 38 38
25 25 26 28 29 32 34 36 37 38 40 41 43 45 47 51 56 60 62 57 49 44 40 37 37 35 33 34 37 38 39 40 41 42 40 40 40 39
28 29 30 32 34 36 37 39 39 40 42 44 44 48 55 61 62 57 50 43 39 39 36 34 32 31 30 30 31 33 35 39 41 42 41 40 40 40
32 32 33 35 37 38 40 41 42 44 45 48 48 55 59 56 50 45 41 39 39 39 37 35 33 32 33 33 32 30 35 35 37 41 40 39 40 41
33 34 36 38 39 40 41 43 45 46 49 52 52 56 54 50 45 42 41 40 40 40 41 41 40 39 38 37 35 36 35 35 38 40 38 37 38 40
35 36 38 39 39 39 42 44 49 48 51 54 57 54 51 46 43 43 43 43 43 43 45 45 45 45 44 41 42 39 38 39 40 40 40 37 35 36
36 38 39 40 39 41 45 47 51 52 53 56 57 50 48 46 45 46 47 47 47 46 46 48 48 48 46 44 44 45 42 42 42 41 41 40 37 35
38 39 40 40 41 44 48 51 52 52 54 57 52 48 47 47 48 49 50 51 51 50 49 50 50 49 49 48 44 42 45 43 45 44 40 39 37 35
39 39 40 41 42 46 50 52 52 53 55 55 49 47 47 47 49 51 52 52 52 51 48 47 48 49 50 49 46 43 43 46 46 46 38 37 35 33
40 40 41 43 45 49 53 54 54 55 57 53 47 46 47 48 51 50 48 47 48 46 44 44 45 47 48 49 46 44 42 44 48 43 37 34 30 28
40 41 43 46 48 52 55 55 55 56 58 51 46 46 45 47 46 43 41 40 38 39 42 41 41 43 43 45 46 45 46 43 37 34 33 37 33 31

GFSNE_500_spd_048.txt.gz
Wind_Speed
46 48 53 53 55 60 61 57 59 64 64 74 59 62 64 63 59 58 57 57 65 42 41 49 45 50 48 49 49 49 50 51 52 47 53 52 55 52
46 46 46 49 52 53 52 53 55 61 58 56 56 59 57 60 56 54 58 55 59 56 40 44 47 40 38 36 44 43 40 39 43 49 53 56 57 57
44 43 45 47 49 50 46 50 54 53 47 46 49 50 54 55 60 64 49 54 50 48 39 40 39 39 42 41 49 51 49 48 51 53 57 60 59 56
41 41 43 44 43 44 45 48 41 40 44 47 46 29 36 49 48 52 39 44 51 57 56 50 52 56 58 52 52 55 53 55 55 57 59 59 60 63
40 39 39 41 41 45 44 40 36 32 32 27 27 36 25 31 40 33 47 42 33 34 46 46 51 52 53 55 54 55 54 53 56 57 58 59 58 58
40 38 36 37 36 36 34 32 28 22 22 21 21 25 30 41 44 38 32 41 49 48 48 48 51 47 47 52 53 49 47 49 49 50 52 54 57 60
37 36 33 32 31 30 28 29 28 20 20 24 28 28 30 34 36 46 43 36 42 47 46 46 51 49 44 44 48 50 51 52 53 55 57 58 60 62
33 31 30 30 28 28 26 26 26 22 18 18 21 23 29 31 34 37 41 46 47 46 44 45 45 46 47 49 53 55 56 57 57 59 61 63 64 67
27 25 25 26 25 25 24 24 23 21 20 21 20 19 21 27 31 34 36 38 40 44 44 46 52 52 55 56 59 60 61 59 59 62 63 62 61 62
22 22 22 22 23 23 23 23 23 23 23 24 24 25 26 29 32 35 39 42 45 49 50 54 56 59 60 61 63 63 61 58 57 55 54 54 54 54
22 21 22 24 25 25 26 26 27 28 28 30 32 33 34 36 37 40 44 47 50 52 53 55 57 60 62 63 61 58 54 51 50 50 49 48 47 46
23 24 25 25 26 27 29 30 32 33 34 35 36 37 39 40 41 43 45 47 49 52 56 60 62 61 59 55 50 47 45 44 43 42 42 42 42 41
24 26 27 29 30 30 31 33 35 36 37 38 39 40 41 43 44 46 47 50 54 59 62 58 54 51 45 45 44 43 39 37 35 36 37 38 39 39
25 26 28 29 30 31 34 36 37 38 38 40 42 44 46 46 49 51 53 56 58 59 54 47 42 42 40 41 40 39 37 36 35 36 36 36 37 38
26 28 30 32 33 34 36 38 39 39 40 43 45 48 49 49 51 54 57 58 56 52 46 43 42 40 39 39 39 39 37 38 37 37 38 39 37 39
30 31 32 33 35 37 38 39 39 39 41 45 48 52 51 50 52 55 57 53 51 48 45 44 44 42 41 42 40 38 39 37 39 40 40 40 39 39
32 32 33 35 37 38 39 41 40 42 46 49 51 51 51 52 54 55 52 49 48 48 49 49 47 46 44 45 45 44 43 41 42 43 42 40 41 42
33 34 35 37 38 40 40 41 42 44 48 52 52 52 53 55 56 53 48 47 47 49 50 52 52 51 50 48 49 48 47 47 47 46 45 44 41 44
34 36 37 39 40 41 41 42 45 48 52 54 53 54 54 57 55 49 47 47 48 50 52 54 54 55 51 48 48 49 48 49 48 48 48 46 43 43
35 37 40 41 41 41 42 44 47 50 54 55 54 55 57 57 50 46 46 45 48 48 46 48 50 51 50 48 46 44 49 50 51 50 49 46 46 45
36 39 42 42 42 42 44 47 49 54 56 55 55 57 59 52 45 45 43 43 45 43 38 38 42 43 44 44 42 42 45 49 51 49 46 46 46 46
38 41 43 44 43 44 46 49 52 55 55 54 55 58 55 48 44 42 41 40 40 37 34 32 33 35 36 38 38 37 37 42 46 46 47 48 47 39
40 43 45 45 45 47 49 51 55 57 55 54 56 58 52 47 43 41 40 38 36 35 33 31 31 31 29 29 29 29 35 38 43 47 46 47 39 30

GFSNE_500_spd_051.txt.gz
Wind_Speed
37 41 39 42 45 46 45 48 51 51 53 55 56 54 59 58 55 61 63 52 53 71 61 62 54 49 52 43 42 50 48 54 55 51 51 51 54 58
39 41 40 43 45 43 44 46 46 49 53 56 51 44 41 40 43 49 50 57 47 54 56 49 49 47 48 45 39 39 38 37 38 42 48 50 49 51
41 41 42 42 44 43 42 45 43 45 51 51 43 43 44 46 40 38 43 42 44 46 52 41 43 42 35 38 41 34 28 38 38 41 47 45 43 46
40 41 42 42 44 42 41 42 40 42 45 46 35 35 37 27 27 23 17 36 47 44 49 53 44 45 49 39 43 49 50 44 46 48 49 53 53 51
39 40 40 41 43 40 41 40 37 40 40 38 33 30 26 22 23 29 27 21 27 21 36 47 40 37 34 35 37 41 44 49 50 49 49 51 53 53
37 38 39 39 38 37 37 35 34 34 33 32 31 30 29 27 25 22 22 26 29 28 26 33 35 42 43 41 41 44 44 48 50 48 48 49 50 51
38 38 38 37 34 32 31 29 28 28 29 29 28 27 26 24 24 28 28 27 28 32 38 39 42 44 45 43 38 39 42 43 45 45 46 48 50 52
37 34 31 29 27 24 23 25 26 27 28 27 28 29 28 27 26 25 25 27 26 30 35 37 37 39 40 39 40 43 45 46 49 51 53 55 55 55
29 27 26 25 24 25 25 27 27 28 28 28 29 29 29 30 30 31 31 33 35 36 36 38 44 43 46 48 50 51 52 53 53 54 55 56 58 59
26 25 25 25 25 27 28 29 29 30 31 32 33 34 34 34 34 35 37 38 40 43 45 44 49 49 50 50 51 54 56 59 60 61 60 60 60 60
24 24 25 26 27 28 29 29 30 31 32 34 35 36 36 36 37 39 41 42 44 46 46 49 51 54 55 57 58 60 62 61 58 58 56 53 51 50
25 25 26 27 26 27 29 29 31 33 35 36 37 37 37 39 41 43 46 48 49 51 48 50 54 57 59 59 58 56 55 52 49 46 43 43 41 40
26 26 26 26 27 29 30 31 32 35 37 38 39 38 39 42 45 47 51 52 50 51 51 51 57 58 59 59 55 50 47 45 42 41 39 38 38 38
27 26 27 28 30 32 33 33 35 36 38 39 39 40 43 46 49 52 54 51 49 51 52 56 59 58 54 50 45 46 44 43 42 41 41 40 39 38
27 28 29 31 32 33 34 35 37 38 40 41 41 42 45 49 53 54 53 51 52 54 57 58 55 50 48 47 45 46 45 46 44 44 43 41 40 40
29 31 32 33 33 34 36 37 39 40 41 42 43 45 49 54 56 54 50 52 57 60 56 51 49 48 48 49 48 47 49 46 48 48 47 44 44 44
31 31 32 33 35 36 37 40 41 42 42 43 45 48 52 57 56 51 53 56 59 53 48 46 47 48 50 51 51 51 51 50 50 50 50 48 46 46
32 33 34 35 37 38 40 41 43 43 44 45 48 51 55 58 54 53 54 58 52 46 46 48 47 50 49 48 50 50 50 50 52 51 51 50 47 48
35 35 36 37 37 38 41 43 44 44 46 47 51 54 58 57 53 54 57 56 51 46 46 44 46 47 42 38 40 44 47 48 49 49 50 50 48 47
38 37 37 37 38 40 42 44 45 45 47 50 53 57 59 53 53 55 58 56 50 46 44 44 44 42 39 35 29 31 41 42 44 45 47 49 49 49
37 37 38 38 40 43 45 46 46 47 49 53 56 59 56 51 54 56 59 54 50 46 43 42 43 41 39 36 32 30 31 37 40 43 45 48 49 50
37 39 40 41 44 46 48 49 49 50 53 57 59 57 52 53 56 58 57 53 50 47 43 41 41 41 40 39 35 31 29 30 34 37 40 42 43 42
38 40 42 44 45 48 50 51 52 55 58 60 57 52 53 56 59 59 55 52 49 46 43 40 40 41 40 41 38 34 32 32 33 32 31 36 35 32

GFSNE_500_spd_054.txt.gz
Wind_Speed
43 40 36 39 41 42 41 42 43 41 41 40 41 43 46 49 41 46 48 47 42 44 50 56 31 44 57 66 59 50 42 47 45 39 42 46 50 50
37 36 37 39 41 42 43 42 43 43 41 41 39 42 41 41 37 35 35 33 34 41 38 32 48 27 34 50 49 40 38 37 41 42 43 44 38 39
36 37 38 41 42 43 43 41 43 42 41 39 37 36 37 36 33 30 33 33 30 25 21 25 29 36 36 34 29 32 31 33 35 34 27 30 33 32
38 38 39 42 42 42 43 42 41 40 37 35 32 31 31 32 32 32 28 25 25 18 19 24 28 34 34 37 37 46 37 39 39 41 46 43 35 43
38 38 40 41 40 42 42 40 40 35 34 29 27 28 28 29 30 31 29 27 22 19 15 18 24 25 28 30 30 33 32 33 36 41 39 41 44 41
38 39 39 39 41 41 39 37 33 30 27 27 28 29 28 30 30 30 29 27 25 21 23 24 26 27 31 34 35 38 41 42 41 43 46 47 47 47
38 37 37 39 39 35 32 30 26 26 28 29 28 28 28 29 30 30 30 29 28 27 26 25 27 31 35 36 40 38 39 39 40 42 44 46 48 46
34 36 38 37 32 29 27 26 27 28 30 29 30 29 30 31 31 30 30 30 31 31 31 33 32 34 36 37 38 39 40 40 41 43 44 46 48 50
35 37 35 32 28 27 27 27 29 30 30 31 30 31 32 33 33 33 33 33 32 33 35 38 40 41 42 41 42 43 45 47 48 50 51 52 55 57
35 34 31 28 28 28 28 29 30 31 31 31 31 32 34 35 36 35 35 35 37 38 41 43 46 48 48 47 47 47 48 49 50 51 52 55 57 59
32 30 28 28 29 30 30 29 30 31 32 33 34 35 36 37 37 37 37 39 42 45 49 51 53 53 51 49 50 50 51 53 55 56 56 55 56 57
30 29 29 29 30 31 30 31 32 34 34 35 36 37 38 39 38 39 40 43 46 50 53 54 52 49 49 51 53 55 57 57 56 56 53 53 51 48
30 31 31 31 31 30 31 33 35 35 36 37 38 39 39 39 40 41 43 47 51 55 54 49 46 48 52 56 59 59 57 54 52 50 49 48 45 42
31 31 31 31 31 32 34 35 36 36 37 38 40 41 41 42 42 44 47 51 55 58 50 46 50 53 58 55 51 51 49 48 48 48 48 47 44 42
36 34 33 32 33 35 35 35 36 37 38 40 41 42 43 44 45 47 50 55 58 55 48 50 50 55 53 46 44 47 47 49 50 50 49 49 47 45
40 37 36 36 36 36 36 36 38 39 40 41 42 43 44 46 47 50 54 58 59 51 49 51 54 55 48 43 43 44 48 49 53 54 54 53 50 48
33 33 35 38 38 39 39 39 40 40 40 42 44 45 46 47 49 52 57 59 54 51 53 52 54 51 45 42 40 43 46 47 48 51 53 53 52 51
34 35 37 39 40 42 42 41 40 41 42 45 46 47 48 49 52 56 60 58 50 51 53 56 57 51 43 40 41 41 42 42 43 45 48 49 49 51
35 37 38 40 40 41 41 42 43 44 46 48 49 50 51 53 56 59 60 54 50 52 56 58 57 51 43 38 39 43 40 41 36 34 37 41 43 47
39 40 41 41 41 41 42 43 45 46 48 50 52 53 55 56 59 60 55 52 52 55 57 58 56 52 45 37 34 40 43 40 38 33 34 34 32 37
40 41 41 42 41 41 42 44 47 50 51 53 54 56 57 58 58 55 53 54 53 55 56 54 54 53 46 40 35 35 38 41 43 38 36 33 29 27
40 41 40 40 40 42 44 46 49 51 54 55 55 57 58 57 55 55 55 55 56 57 53 52 52 50 46 41 36 34 35 38 41 41 40 38 32 25
41 42 43 44 44 45 46 48 50 54 56 56 57 59 57 55 55 54 55 56 57 53 54 52 48 46 42 40 37 34 35 38 41 39 37 43 41 34

GFSNE_500_spd_057.txt.gz
Wind_Speed
44 44 42 39 37 34 34 36 37 39 39 40 40 41 39 39 36 36 36 39 42 36 36 40 35 38 39 26 38 58 43 41 49 51 49 42 41 47
42 40 37 35 35 36 38 38 40 40 39 40 40 38 36 34 33 33 33 34 36 34 33 35 31 26 32 16 23 19 25 31 40 47 40 41 36 45
37 35 35 36 38 39 38 40 40 39 40 39 37 34 32 30 30 32 33 33 33 32 30 27 21 16 13 18 20 25 25 28 33 29 34 35 39 43
34 35 36 38 38 39 40 40 39 40 40 38 35 30 28 27 29 29 29 30 31 31 27 25 20 17 17 20 26 29 25 33 30 34 35 32 38 34
37 38 39 40 39 40 41 40 40 39 36 32 29 25 26 28 27 27 28 28 28 28 27 25 25 23 21 21 25 25 28 27 32 38 38 41 44 45
37 37 39 39 39 39 39 39 38 34 30 27 25 26 28 27 28 29 29 29 29 28 27 28 27 24 24 26 30 31 32 33 36 40 43 43 44 44
34 34 32 33 35 36 37 35 32 29 27 26 26 27 28 30 30 31 31 31 31 30 28 28 28 29 29 29 30 32 36 38 40 42 42 43 47 47
31 31 32 35 36 35 33 30 28 28 27 28 28 29 30 31 32 33 33 32 32 31 30 30 30 31 33 35 37 38 40 41 43 44 45 45 44 44
28 30 32 34 34 31 29 27 28 29 30 30 29 29 31 33 34 34 34 34 34 34 34 35 35 36 39 43 45 47 47 47 45 46 47 49 49 50
25 28 30 30 30 28 28 29 30 30 31 30 30 33 34 35 35 36 36 36 36 36 37 37 39 42 46 49 50 50 48 46 46 48 50 52 54 54
26 27 28 29 30 31 31 31 32 32 30 31 34 36 36 36 37 38 38 37 38 38 38 41 44 48 51 51 47 44 43 45 47 49 51 54 55 56
26 28 30 31 31 33 33 33 33 32 32 35 37 36 36 37 38 38 38 38 38 39 41 44 47 51 53 46 43 44 47 48 54 58 59 59 57 56
27 29 31 33 34 35 35 34 34 35 37 38 37 37 38 39 39 39 40 40 41 42 44 46 51 53 50 44 45 45 48 53 54 50 48 47 47 47
29 31 33 34 38 38 36 35 36 38 39 38 38 39 40 40 40 41 42 44 45 46 47 50 53 54 48 45 47 48 50 51 47 45 45 45 45 46
31 32 33 35 35 33 34 36 38 39 39 40 41 41 41 41 41 43 44 46 47 49 51 53 55 55 47 45 48 50 51 50 46 45 45 44 45 48
33 33 34 36 35 33 34 36 38 39 41 43 43 42 42 43 45 46 46 47 50 53 54 54 55 51 47 48 49 50 50 47 48 46 44 43 43 42
34 34 34 36 36 36 37 38 40 41 42 42 43 43 43 46 47 48 49 51 53 56 56 55 50 48 49 50 51 50 48 48 47 44 41 41 42 41
35 35 36 37 39 40 40 40 40 40 41 42 43 44 46 49 50 52 53 55 56 57 57 54 52 52 49 50 51 47 46 48 47 42 40 37 38 39
36 37 38 38 39 40 41 41 40 39 40 41 43 45 48 51 53 55 56 57 57 56 55 54 52 50 50 50 48 47 50 48 43 40 39 37 33 36
38 39 39 38 39 40 40 40 39 40 42 44 46 48 51 53 55 57 57 58 56 55 54 54 53 52 53 51 47 46 51 46 43 39 39 36 34 33
38 39 38 38 39 41 41 41 42 43 44 46 48 51 53 55 56 57 57 55 54 55 53 54 56 56 53 52 50 43 43 46 41 37 37 36 34 32
38 37 37 38 40 41 42 44 44 44 46 48 50 52 53 54 55 54 54 56 55 54 52 54 56 54 54 50 40 33 34 38 40 38 37 38 36 29
39 38 39 40 41 42 43 43 45 48 48 49 50 49 50 52 54 54 55 55 54 53 53 55 53 53 51 44 34 29 29 31 35 36 35 42 42 37

GFSNE_500_spd_060.txt.gz
Wind_Speed
51 49 47 46 46 45 42 39 38 38 40 40 41 43 41 41 38 36 33 31 30 32 33 34 33 32 35 33 29 30 35 25 21 39 43 28 32 35
46 45 45 45 43 41 39 39 40 41 42 42 43 42 42 40 36 33 30 27 28 29 31 32 30 30 28 24 16 12 19 12 19 36 33 30 30 34
43 43 42 41 39 38 39 40 42 42 43 43 44 42 41 37 33 31 26 27 27 28 28 30 29 28 28 26 19 15 11 13 14 17 22 28 32 32
42 40 39 38 39 40 41 41 41 42 43 44 42 40 37 31 29 26 27 27 27 28 28 28 29 27 28 27 24 21 20 21 20 25 32 31 33 30
39 38 39 39 40 40 39 38 38 39 40 39 37 33 30 26 25 27 28 28 30 30 29 28 28 29 28 27 26 24 25 25 27 27 30 29 34 39
38 38 38 39 36 34 35 35 37 38 37 33 30 27 26 27 27 29 29 30 32 32 32 31 30 30 30 29 28 27 27 28 30 33 36 37 37 37
38 37 35 33 33 33 33 33 35 33 31 29 27 26 26 28 29 30 30 31 33 33 34 33 32 32 32 32 32 32 33 34 36 37 38 40 41 41
33 32 30 28 26 28 30 31 30 29 28 28 28 28 28 29 29 30 31 33 34 35 36 35 34 34 34 35 35 36 38 40 42 45 46 48 48 48
29 23 23 25 27 29 29 28 28 28 28 29 30 30 30 30 31 33 35 36 36 36 37 37 36 36 36 37 39 40 42 44 47 49 52 55 53 49
22 21 23 25 26 26 26 25 28 30 31 32 32 32 31 32 34 36 36 36 37 37 38 38 38 37 38 40 43 44 46 48 49 50 50 49 47 47
21 23 23 24 26 26 28 28 28 30 32 33 33 33 34 36 38 37 36 37 38 39 39 39 40 40 42 44 46 48 50 50 51 49 47 47 49 50
23 25 25 25 27 29 30 31 31 33 33 33 34 35 37 38 37 37 37 39 39 39 40 41 41 43 45 48 50 52 53 53 51 49 47 48 49 51
25 26 26 27 29 31 31 33 34 34 34 35 35 37 37 38 38 40 41 41 40 40 42 42 44 45 47 51 54 54 54 53 50 48 47 48 49 50
27 27 28 29 30 32 33 33 33 32 32 33 36 37 38 39 41 42 42 41 42 44 45 47 47 49 51 53 55 55 54 51 48 49 49 49 47 48
29 30 30 31 32 33 34 35 35 34 35 37 39 40 41 41 42 42 42 43 45 46 48 50 51 53 54 54 55 55 52 50 49 50 50 48 47 46
31 31 31 32 35 36 36 37 37 37 37 38 39 40 41 41 41 42 43 45 48 50 52 53 54 55 56 55 53 52 52 52 52 50 48 47 44 43
30 32 33 35 37 38 38 39 40 39 38 39 39 40 39 41 43 45 47 49 51 54 55 55 56 55 53 52 52 52 51 52 52 52 50 46 44 44
32 34 38 39 39 39 39 39 39 40 39 39 38 39 40 42 45 47 50 52 54 56 57 58 56 54 50 51 52 52 53 54 54 53 51 46 44 46
38 38 38 40 40 40 39 39 40 40 40 40 41 42 43 45 47 50 51 53 55 56 56 56 54 53 51 51 50 54 55 55 53 53 54 52 43 44
36 37 38 39 39 39 39 39 39 40 42 42 43 43 44 46 48 50 52 52 51 53 55 57 55 54 52 50 49 53 54 53 55 52 46 43 38 38
35 37 38 38 38 39 40 41 41 42 43 44 44 45 47 47 47 46 46 49 51 53 55 57 57 55 53 52 51 51 52 54 46 39 35 34 34 34
38 39 40 40 41 43 43 42 44 45 45 45 45 45 43 42 44 47 50 52 54 55 57 58 57 55 54 54 52 49 50 44 42 39 35 32 30 29
41 42 44 44 43 43 43 44 45 44 43 43 43 41 42 44 46 50 53 54 57 59 59 56 56 54 54 56 53 51 42 38 37 36 36 37 32 29

GFSNE_500_spd_063.txt.gz
Wind_Speed
46 46 49 51 51 48 46 47 45 43 41 40 40 42 43 44 43 43 42 40 36 30 28 27 27 28 28 29 28 27 29 26 21 28 28 17 20 20
47 47 50 51 48 45 46 44 41 41 42 42 42 43 43 43 43 42 40 37 31 27 25 26 27 28 28 28 29 26 27 25 20 18 23 11 16 25
49 50 49 46 45 45 42 41 41 43 44 42 41 39 40 42 41 40 36 31 26 25 26 27 28 28 29 29 29 29 26 25 23 20 14 9 10 15
50 48 47 44 42 41 40 41 42 43 40 36 36 37 38 39 37 32 29 25 23 27 27 28 29 29 30 29 29 29 28 26 21 20 18 20 23 27
46 45 43 42 39 40 40 41 40 37 36 36 36 36 35 33 29 27 24 25 27 29 30 30 30 30 31 30 29 29 30 29 27 24 23 23 26 27
45 41 39 38 37 37 38 37 35 32 32 32 32 31 30 28 27 26 27 28 29 30 30 31 31 31 31 31 31 31 31 31 32 31 29 29 29 31
40 37 35 34 35 34 35 29 28 29 30 30 30 30 28 27 28 29 29 30 29 30 31 32 32 33 33 33 33 33 32 33 34 35 36 38 39 38
35 34 34 34 31 30 27 26 28 29 29 28 28 27 28 29 30 29 30 30 30 33 34 34 34 34 35 35 36 35 35 35 36 37 38 40 42 44
33 35 32 29 28 26 26 25 26 26 27 27 28 29 29 29 30 30 31 32 34 35 36 35 35 35 36 37 37 37 37 38 39 40 42 43 45 47
31 29 29 27 25 26 25 27 27 27 28 29 31 32 31 31 31 31 32 34 36 36 35 36 36 36 37 37 38 38 39 41 42 44 46 48 49 50
28 28 27 26 26 25 28 28 27 29 30 31 32 35 35 34 33 33 35 36 36 36 37 38 38 38 38 39 40 41 43 45 46 48 50 52 52 53
28 27 28 27 26 27 28 28 28 29 30 32 32 33 33 34 35 35 36 36 37 38 39 40 39 39 40 42 43 45 47 48 51 52 52 53 54 54
29 28 28 26 26 28 29 30 30 31 32 33 34 34 34 34 36 37 38 39 40 40 40 40 42 43 44 46 47 48 50 53 54 55 56 55 55 53
29 29 28 28 30 31 30 30 32 33 35 36 37 36 38 38 38 39 39 40 40 40 41 42 44 46 47 49 51 53 54 56 56 56 54 53 50 48
31 29 29 30 31 31 31 33 35 36 37 37 39 40 40 41 40 40 40 40 41 42 43 44 47 49 51 52 53 56 57 57 55 52 49 48 49 48
31 31 31 31 31 31 33 37 39 39 40 40 41 41 40 40 40 39 39 40 41 43 45 47 50 51 54 56 55 55 57 54 53 51 49 51 49 49
32 33 33 33 33 34 37 40 40 41 41 42 42 41 41 41 41 41 42 43 44 46 47 49 52 52 51 52 54 56 56 56 53 54 51 48 50 51
33 33 34 33 35 39 41 41 42 42 42 42 42 41 40 41 41 42 43 44 46 48 48 47 47 49 51 52 54 56 56 55 54 51 50 50 51 53
35 35 36 37 39 38 39 40 40 41 41 41 41 42 43 44 43 44 44 46 46 44 44 46 48 51 52 54 56 58 56 55 53 51 52 52 50 51
35 37 38 39 38 38 38 39 40 41 41 42 44 43 45 46 45 45 45 42 41 43 46 49 51 53 55 57 52 55 57 53 54 53 51 52 45 38
39 38 38 39 40 41 41 41 42 43 43 43 44 46 47 45 44 43 41 41 42 45 48 52 54 55 57 56 52 55 54 56 57 53 51 43 35 32
42 43 44 45 45 45 43 44 44 44 46 45 44 46 45 43 42 40 41 43 46 49 52 54 56 57 58 57 57 56 53 54 57 56 50 39 33 28
47 50 49 48 47 43 45 45 45 46 47 47 47 45 42 40 39 42 46 50 53 55 56 57 58 59 59 59 58 57 53 53 54 51 41 38 28 24

GFSNE_500_spd_066.txt.gz
Wind_Speed
47 45 46 45 45 46 46 47 45 43 43 42 41 41 42 41 41 39 36 36 36 35 34 30 27 23 23 23 25 26 26 26 23 24 24 25 21 30
47 45 44 44 44 46 48 48 43 42 41 39 40 41 42 40 37 34 33 34 34 31 28 26 23 23 23 24 25 26 26 26 24 23 22 21 18 15
46 45 45 46 46 45 45 44 42 39 39 38 40 40 39 36 34 32 32 30 29 25 23 22 23 24 25 26 26 27 27 27 27 24 21 20 17 17
45 46 48 48 48 46 43 42 41 39 37 36 35 35 32 31 30 30 29 27 24 22 21 24 25 25 27 27 27 28 28 28 29 30 26 20 18 18
45 45 46 46 45 46 42 40 37 37 34 35 31 26 26 27 27 27 26 26 25 25 25 27 27 27 28 28 28 29 28 28 29 30 29 28 26 24
42 43 45 47 47 44 41 37 34 34 33 29 27 26 27 27 26 25 25 26 27 27 28 28 27 26 28 29 30 30 30 30 31 31 31 31 29 27
44 44 44 42 41 38 34 32 33 31 28 27 27 25 26 26 26 27 28 29 28 28 28 26 28 29 31 31 31 31 31 31 32 33 34 33 33 33
43 42 39 36 32 31 30 32 31 28 26 26 25 25 26 26 27 28 30 30 29 31 30 29 31 31 31 31 31 31 32 33 34 34 35 35 36 36
34 33 31 29 27 30 33 29 28 28 26 26 25 25 26 28 28 31 31 31 30 31 32 33 34 33 33 32 32 33 34 35 35 36 37 38 39 40
36 31 30 30 31 30 28 28 28 27 27 25 27 26 26 28 28 30 30 31 32 33 34 35 35 34 34 35 35 36 36 36 37 38 39 40 42 44
34 31 29 29 30 28 28 28 29 27 26 26 27 28 28 29 30 30 29 30 32 33 34 35 36 36 37 38 38 37 37 39 40 41 43 45 47 49
27 27 30 29 29 30 29 28 28 27 26 27 29 31 31 32 33 32 33 33 35 36 36 37 37 38 38 38 38 39 41 42 44 46 48 50 52 53
26 26 27 28 31 30 29 29 28 27 26 28 31 33 33 34 35 36 35 36 37 37 38 39 39 38 38 39 39 41 43 45 47 50 52 54 54 53
24 26 29 31 31 31 31 31 29 28 28 30 34 36 36 37 38 39 38 38 38 38 38 38 38 38 39 41 43 45 46 48 50 51 52 53 53 53
24 27 30 30 30 31 32 32 30 30 34 34 37 39 39 40 40 40 40 39 39 38 37 38 39 40 41 43 44 46 46 47 50 53 53 53 52 51
26 28 30 30 30 31 33 34 34 34 35 38 39 39 40 41 41 41 40 39 39 39 40 40 41 42 44 44 41 42 45 47 51 53 54 53 51 50
28 28 29 30 32 34 36 37 36 37 39 40 39 39 40 41 41 41 40 40 41 42 42 42 43 44 41 38 41 44 47 50 51 54 54 50 50 50
30 31 32 33 35 36 37 37 38 39 39 38 38 38 38 39 41 41 41 41 43 44 44 44 43 39 39 41 43 47 50 52 54 56 55 51 51 50
30 31 33 36 37 37 37 38 39 39 38 38 38 38 39 40 41 43 43 43 44 45 45 44 40 40 41 43 50 53 54 56 56 57 57 56 51 48
31 36 39 37 35 38 39 39 39 40 41 41 41 40 41 42 43 43 43 44 45 45 44 41 43 44 47 50 52 57 59 58 59 58 58 56 54 50
36 35 36 38 40 42 41 41 43 45 43 43 43 44 42 43 45 45 46 45 43 41 41 44 47 51 54 56 56 57 60 62 62 60 57 54 51 49
40 40 40 42 43 44 45 48 49 46 47 45 43 43 44 46 46 46 44 40 40 41 44 50 54 56 58 58 57 58 60 63 62 59 55 52 49 45
41 42 44 46 48 50 51 52 51 49 47 44 43 46 47 48 47 42 38 41 44 47 51 54 56 57 58 58 60 62 59 55 52 49 49 54 49 38

GFSNE_500_spd_069.txt.gz
Wind_Speed
49 46 44 44 43 42 42 40 42 41 42 42 41 39 38 38 36 37 36 32 31 29 29 30 30 28 24 22 20 21 21 21 21 21 20 19 20 20
46 45 45 44 43 42 42 43 42 41 42 42 40 39 37 36 36 35 35 28 26 26 27 26 25 22 20 20 21 21 21 22 23 22 21 19 19 20
48 46 44 44 42 41 42 43 42 43 43 43 41 38 36 35 36 32 27 23 24 24 24 23 22 19 20 22 23 23 23 23 24 23 23 22 20 20
49 49 46 45 44 44 45 45 44 43 42 42 39 35 33 32 33 28 25 24 23 22 23 23 22 23 24 25 25 25 24 24 25 24 24 24 24 21
43 44 43 42 42 43 42 45 46 44 43 39 34 32 31 29 28 27 26 24 23 23 24 25 25 27 26 26 26 25 25 25 26 27 27 27 27 27
43 44 43 43 44 45 45 46 47 43 38 34 31 31 28 27 27 27 26 24 24 26 26 26 28 28 27 27 27 27 28 28 29 29 29 29 30 30
44 46 45 46 46 46 46 44 41 35 32 31 29 27 28 25 26 25 25 24 24 27 27 27 29 29 30 29 29 29 30 31 31 31 31 31 32 32
42 40 42 40 40 37 36 34 36 31 27 29 27 27 27 26 25 25 24 24 26 28 28 29 31 31 31 32 33 33 32 32 33 33 34 34 35 35
44 39 36 33 31 33 30 30 28 29 28 27 28 26 26 26 24 26 26 25 25 27 27 30 31 32 32 33 33 34 34 34 35 36 37 37 36 37
45 46 46 39 37 32 30 29 28 27 27 28 26 25 27 27 25 26 27 28 27 27 27 29 30 32 33 33 34 35 36 37 38 38 38 38 38 39
38 44 47 40 40 30 29 28 28 29 28 28 26 26 28 26 26 28 29 29 30 30 31 32 33 34 34 35 36 37 38 38 37 37 38 39 39 41
35 37 34 32 31 29 27 26 28 29 31 28 28 28 28 27 27 29 30 31 32 33 34 35 36 36 36 36 37 37 36 36 36 37 39 40 42 44
29 29 29 29 28 24 24 27 28 30 30 30 30 30 28 27 30 31 32 33 34 35 36 37 37 37 37 37 36 36 36 37 38 39 41 43 42 42
22 20 20 20 22 25 26 28 30 31 31 32 33 33 32 29 32 35 36 36 36 37 37 36 37 37 37 37 37 38 39 39 40 42 40 39 41 44
21 22 22 25 26 26 28 30 32 32 31 33 35 37 36 36 36 36 36 36 37 38 37 38 38 38 39 40 40 41 41 42 43 39 39 42 45 47
27 30 28 25 27 28 30 30 31 31 33 35 37 38 38 37 36 35 36 38 38 37 38 38 39 40 41 41 42 44 44 42 40 41 43 46 49 51
28 27 26 27 29 30 30 31 32 34 36 37 37 37 36 37 35 34 37 37 38 39 39 40 41 41 42 42 43 44 40 41 43 45 47 51 55 56
23 24 26 27 28 29 29 30 32 34 34 35 36 36 36 35 35 37 37 37 39 41 42 41 40 41 43 43 43 40 42 44 48 51 54 56 58 60
23 24 26 27 28 29 32 36 37 34 34 36 36 36 36 38 40 41 41 40 41 42 43 43 43 43 42 41 41 42 46 50 54 58 59 58 56 58
26 27 28 29 30 33 35 33 33 36 38 38 39 40 42 43 42 43 43 43 43 44 45 45 44 42 39 39 43 50 52 55 58 57 57 57 59 62
29 31 33 34 38 39 40 40 39 40 41 41 43 45 46 45 44 45 45 44 46 47 47 46 42 40 41 43 48 53 57 58 57 55 56 59 60 50
34 35 37 38 39 41 42 43 45 47 50 51 51 49 48 48 47 47 47 47 47 48 46 43 43 45 47 49 51 53 55 56 57 58 59 61 48 43
35 36 37 38 39 40 42 43 45 48 50 53 54 52 51 50 48 48 48 48 47 47 43 44 47 49 50 52 53 53 54 56 58 59 58 54 49 49

GFSNE_500_spd_072.txt.gz
Wind_Speed
54 53 53 52 51 48 46 46 44 42 41 40 41 40 40 41 40 40 40 40 35 33 33 26 23 25 25 23 22 20 19 20 20 20 20 20 19 17
56 54 55 52 50 48 46 45 44 43 42 41 41 42 43 42 42 40 40 37 32 31 26 23 23 24 22 21 19 18 20 21 21 21 21 21 20 19
57 59 56 53 52 51 50 49 46 46 47 44 44 44 44 43 43 41 37 34 30 26 23 22 23 22 21 22 21 21 22 23 23 23 22 22 22 22
59 56 53 53 52 50 49 48 45 45 46 46 45 46 45 45 42 38 35 31 28 26 24 23 22 22 22 23 25 25 25 25 25 25 24 24 24 24
45 44 44 43 45 45 45 44 45 46 47 48 47 45 45 42 39 34 32 31 29 27 26 24 23 23 24 25 25 25 25 26 26 27 27 27 27 27
46 45 45 43 44 43 44 47 48 51 51 48 46 43 39 37 33 32 30 30 29 27 25 25 25 24 26 26 24 26 26 27 28 28 29 29 29 29
46 45 45 45 46 47 47 48 49 48 46 42 39 37 32 32 31 30 31 28 27 26 25 26 26 26 27 28 27 29 30 31 31 31 31 31 31 31
49 50 51 51 50 43 37 43 43 40 35 32 36 36 30 30 29 30 29 27 25 25 25 27 26 26 27 27 27 30 32 33 33 34 34 34 33 34
51 50 48 49 44 44 42 41 35 35 36 33 31 29 30 27 29 31 27 26 25 25 26 26 25 25 26 27 28 31 32 33 33 34 34 35 36 37
46 46 46 44 43 44 49 43 42 35 31 30 31 25 28 29 31 29 28 26 26 26 27 28 27 28 28 29 30 32 33 34 34 36 36 37 38 38
43 41 43 41 39 42 42 43 42 41 32 25 24 28 26 30 30 28 28 28 28 28 29 29 29 31 31 32 33 35 35 35 36 37 37 37 37 37
42 40 41 39 38 38 38 36 38 35 28 25 30 27 28 30 30 30 29 28 28 29 31 31 32 32 33 34 35 35 36 36 37 37 37 37 37 38
38 36 36 33 37 34 33 35 31 25 24 29 28 27 30 31 31 31 32 34 30 31 32 33 34 35 35 35 36 37 37 37 37 37 38 39 40 40
31 30 29 31 24 29 28 26 24 24 27 27 28 30 31 33 33 34 37 38 35 34 35 35 36 36 36 36 36 37 38 38 38 39 39 39 42 44
30 32 30 25 22 19 21 23 25 27 28 28 30 31 33 33 35 38 41 40 37 35 34 34 35 36 36 37 38 38 39 39 40 40 41 43 46 43
24 25 23 21 23 26 27 26 27 29 30 30 30 31 32 35 37 36 35 36 36 34 33 34 35 36 37 39 40 41 41 41 42 42 43 45 42 41
21 22 24 25 25 26 25 26 27 27 27 28 28 29 31 33 33 35 36 36 35 34 35 36 36 37 39 41 42 43 43 44 45 45 43 41 43 45
20 20 20 21 22 22 23 23 24 25 27 29 31 35 35 34 35 36 36 35 37 39 41 40 40 40 42 44 45 46 47 47 45 42 40 42 47 52
21 21 22 23 24 25 27 28 29 29 31 36 38 34 35 38 37 38 40 41 43 43 43 43 44 44 45 46 48 47 47 45 43 42 43 46 50 57
24 24 24 25 27 28 29 31 32 34 37 38 39 39 40 41 41 43 46 47 47 47 47 46 47 47 47 48 49 49 46 44 43 47 50 53 55 57
25 27 29 30 31 32 34 35 37 38 39 41 43 44 45 48 50 52 53 53 51 49 48 49 49 49 50 49 49 47 46 46 48 50 53 55 56 56
29 31 32 33 34 35 35 36 38 39 40 42 40 39 41 43 47 50 53 55 56 57 54 52 50 49 48 47 46 45 48 50 51 53 56 56 57 56
31 32 33 34 34 34 35 35 35 35 37 39 39 41 43 47 49 48 49 48 48 47 48 49 48 47 46 47 45 47 49 51 54 56 57 59 61 59

GFSNE_500_spd_075.txt.gz
Wind_Speed
54 55 55 54 54 53 53 55 53 51 49 47 45 44 44 42 42 41 42 43 40 40 40 37 35 34 28 26 24 22 20 18 17 18 18 19 19 18
60 60 59 58 59 58 58 55 55 55 52 50 48 47 46 45 45 46 43 44 40 40 38 36 34 29 26 26 22 20 18 17 18 20 21 21 20 21
59 55 56 59 57 54 58 57 55 55 52 51 50 49 46 47 47 48 46 44 41 39 36 34 29 27 25 26 22 20 18 18 19 21 23 24 24 23
46 47 47 47 46 45 45 47 48 47 48 47 47 45 45 47 47 47 45 42 38 36 34 30 28 27 27 25 23 22 21 21 22 22 23 24 26 26
46 46 46 45 47 47 44 45 45 46 45 47 47 48 48 48 49 49 42 37 35 34 30 29 29 27 27 25 24 24 22 22 23 23 23 23 24 26
48 49 47 46 45 45 45 45 47 48 48 49 49 50 49 47 44 37 35 34 32 29 30 31 28 26 27 26 25 25 23 23 25 25 25 26 27 28
48 47 47 46 46 47 47 48 48 49 47 45 42 42 42 42 39 35 32 30 31 29 30 28 27 26 25 27 26 26 25 25 26 27 28 29 29 30
46 46 45 45 46 47 49 49 48 45 41 44 42 39 35 33 30 33 32 31 28 29 29 28 26 26 25 26 25 25 25 25 27 27 28 29 31 31
45 46 46 46 45 47 46 45 45 44 44 43 40 36 34 35 34 26 28 28 29 29 29 28 27 25 24 24 24 24 25 26 27 28 29 30 31 32
45 46 48 49 48 46 43 42 42 43 41 45 44 38 35 35 32 31 30 29 29 29 30 28 26 25 25 26 26 27 28 29 30 31 32 33 34 35
45 44 44 43 43 43 40 43 43 38 41 42 40 37 44 34 34 30 25 27 29 29 29 28 26 26 27 28 29 30 30 32 33 33 34 35 36 37
40 40 41 40 38 38 37 36 37 36 36 37 37 37 32 27 25 25 24 28 29 31 30 29 29 29 30 31 31 31 32 34 35 36 36 36 37 37
37 35 36 37 37 35 35 33 33 33 33 31 35 31 26 24 28 26 28 29 30 32 32 32 36 32 31 32 33 33 34 35 36 36 37 38 38 39
34 35 35 31 29 29 30 32 27 25 25 28 28 25 24 28 28 28 28 30 33 34 34 37 35 33 31 33 33 34 35 35 36 37 38 39 39 40
32 32 29 28 29 31 31 26 22 23 23 21 21 24 27 28 28 29 30 31 33 35 35 33 34 34 32 34 34 35 35 36 37 39 40 40 41 42
29 27 24 23 21 21 18 20 21 21 22 23 25 26 26 25 26 27 28 29 32 33 33 34 36 35 34 35 36 37 37 37 38 40 41 42 43 44
29 26 22 20 22 20 20 18 19 22 22 22 23 25 26 27 27 29 33 35 35 34 35 36 36 36 37 39 41 42 42 42 42 42 43 45 46 46
27 26 22 20 20 19 19 19 22 24 24 25 26 27 28 30 33 37 35 34 36 37 38 38 39 41 42 44 45 46 47 48 47 46 45 45 48 47
28 26 23 22 22 21 22 25 25 26 28 29 30 31 32 35 37 37 38 39 41 41 42 44 46 48 46 46 49 49 49 50 50 49 47 47 46 47
29 28 26 24 23 24 26 26 27 29 30 32 34 36 38 39 39 41 42 43 45 47 49 51 54 56 56 54 52 51 51 50 51 51 50 48 45 46
27 26 26 26 27 28 27 29 31 33 34 35 36 38 39 38 38 39 39 39 41 43 45 48 51 54 55 56 60 57 55 52 50 50 50 48 46 47
27 26 28 29 28 28 30 31 32 34 35 35 36 35 34 36 40 42 43 45 45 47 49 49 49 47 48 48 50 52 52 50 49 49 50 49 46 47
31 32 28 28 29 30 30 32 32 33 33 32 33 36 40 44 47 49 50 52 52 51 49 47 45 46 46 45 45 46 48 48 48 50 50 46 48 50

GFSNE_500_spd_078.txt.gz
Wind_Speed
58 57 56 55 54 56 58 58 58 55 54 52 51 50 49 47 45 44 43 43 43 42 42 42 40 38 36 34 33 27 23 24 23 20 19 17 17 17
54 54 55 57 58 58 59 55 52 52 53 52 49 48 49 50 47 44 44 44 44 45 44 42 38 35 34 32 28 25 25 22 21 19 18 18 19 19
56 58 53 52 52 52 50 47 46 45 44 46 46 47 47 47 46 47 45 44 44 45 43 41 38 33 32 29 25 25 24 22 20 20 20 19 20 21
48 48 48 49 49 46 45 44 45 45 44 45 44 45 45 47 47 46 45 42 40 37 41 40 31 30 31 27 26 24 23 22 21 23 23 22 21 21
44 45 46 46 47 47 48 47 45 45 44 44 44 45 46 47 47 44 43 43 42 44 36 28 28 30 27 27 26 25 24 23 22 24 24 23 22 22
49 49 49 48 47 46 47 47 46 45 44 44 43 44 44 44 42 39 38 38 36 38 32 29 29 26 27 28 26 26 26 25 24 24 24 23 22 23
50 49 48 47 45 44 44 44 43 43 43 43 43 43 40 39 36 41 37 34 34 32 31 28 27 28 26 27 26 26 26 26 25 25 25 25 24 24
44 44 43 43 42 41 41 42 43 42 42 43 42 41 41 41 38 38 32 30 31 29 29 27 27 26 26 25 26 26 26 26 26 26 26 26 25 26
40 40 41 41 41 42 42 44 45 46 44 42 37 37 39 42 38 42 30 31 30 24 21 25 24 25 25 26 26 25 24 23 24 25 25 25 26 26
41 40 40 40 42 43 43 44 41 39 39 37 38 40 38 39 37 35 30 31 25 25 28 25 24 25 25 25 25 24 23 23 24 26 26 27 27 28
44 42 41 42 41 40 40 39 37 36 35 33 37 31 34 35 39 34 32 33 28 30 24 23 25 26 25 25 25 24 25 25 26 29 30 30 30 31
45 44 42 41 39 36 35 36 37 35 32 33 30 34 33 35 34 34 36 31 28 25 23 24 26 27 26 28 30 30 28 29 30 31 31 31 32 33
45 44 41 40 37 33 33 35 31 27 25 29 31 26 26 29 33 35 30 21 25 24 25 26 26 26 27 26 29 32 29 28 31 32 32 33 34 35
42 41 39 38 32 31 33 30 26 24 26 25 24 24 24 27 27 23 22 25 25 25 25 28 30 29 30 30 30 32 32 32 32 32 34 35 36 37
39 38 37 33 31 30 29 26 21 20 17 17 18 19 18 19 20 22 24 25 24 26 27 28 27 29 31 32 32 34 35 34 34 34 36 37 37 39
35 34 33 31 29 28 24 19 17 17 19 18 16 17 18 19 20 22 23 23 24 25 26 29 31 32 33 34 35 37 38 37 37 38 39 40 41 41
36 35 32 29 27 28 24 20 19 20 19 18 18 19 20 21 21 23 25 26 26 28 33 34 33 33 35 36 36 38 39 39 41 42 43 45 46 45
32 32 30 28 27 25 24 22 22 22 20 21 20 22 22 23 25 27 27 28 31 34 33 35 38 39 39 40 41 43 45 47 47 47 47 47 48 48
35 32 29 27 28 25 24 24 23 23 22 23 25 26 25 27 28 30 32 35 37 38 38 40 42 44 46 47 48 50 52 55 56 55 53 52 52 52
28 30 28 27 27 27 25 25 24 24 25 26 28 28 30 32 33 34 35 36 37 38 39 40 41 41 43 44 46 49 50 52 54 54 55 54 54 53
28 30 30 28 27 26 26 25 25 26 27 28 30 30 32 33 33 33 33 34 36 39 41 44 45 47 49 49 51 52 51 49 48 49 50 47 49 51
33 29 32 29 27 27 28 27 27 28 28 29 32 32 31 29 30 31 33 36 39 42 46 49 51 52 53 53 53 51 48 46 46 46 45 44 45 44
23 28 30 32 31 27 26 27 29 29 30 32 31 29 28 29 29 31 36 40 44 46 48 49 48 49 47 45 44 45 45 46 46 47 47 46 46 45

GFSNE_500_spd_081.txt.gz
Wind_Speed
48 47 46 47 49 50 51 52 55 54 55 51 51 53 54 51 50 50 48 45 45 43 42 41 41 40 42 40 38 33 31 30 27 25 25 23 20 20
45 46 49 50 51 51 51 50 51 51 51 50 51 48 47 47 48 47 46 45 43 42 41 41 39 38 40 35 35 31 30 28 27 26 24 22 20 21
48 49 50 50 51 51 49 49 49 49 48 46 44 45 45 45 45 45 45 44 42 41 38 35 37 35 35 37 32 30 29 27 26 25 24 23 22 21
39 41 42 42 43 44 45 45 45 46 46 44 44 44 44 45 45 45 46 45 41 37 36 34 33 32 36 38 28 28 29 26 26 24 24 23 22 22
42 44 46 47 49 50 50 50 49 49 47 46 45 44 44 43 43 43 42 41 37 34 37 35 32 29 28 28 25 28 27 27 26 25 25 25 25 25
45 47 48 48 50 51 51 50 49 48 46 44 42 41 41 41 39 40 40 39 38 35 36 35 33 33 32 25 27 27 23 26 27 27 27 26 26 26
44 41 41 41 42 42 43 43 43 43 42 41 41 41 40 39 40 40 38 37 36 36 35 32 30 34 28 23 27 26 23 27 27 27 28 27 27 27
40 40 41 40 40 41 41 40 40 40 41 41 42 41 42 40 39 36 35 36 40 38 31 29 31 26 27 26 20 20 25 27 27 28 28 28 28 28
42 43 43 43 44 43 41 40 40 40 40 40 40 38 36 34 34 37 36 36 39 34 28 30 33 31 26 21 19 23 25 26 27 28 28 28 27 27
46 47 45 44 45 46 42 40 40 39 38 38 37 36 34 32 32 30 29 33 34 30 29 30 23 22 24 21 23 25 23 24 24 25 27 27 27 26
45 46 45 45 46 45 42 40 39 38 36 35 35 34 32 31 26 28 27 34 35 34 30 30 26 26 24 23 25 25 23 24 25 26 27 27 27 28
47 46 47 46 45 44 41 38 38 36 33 33 29 28 27 26 27 26 26 23 31 30 27 25 28 27 24 24 26 27 27 29 31 31 30 30 30 30
47 46 46 46 44 42 39 37 36 32 31 28 23 24 25 22 23 24 22 24 28 24 23 28 27 23 24 24 22 21 22 23 26 31 31 30 30 31
46 43 42 42 40 39 37 35 31 31 29 29 26 22 17 16 17 16 17 19 18 19 21 22 23 24 25 26 26 26 26 26 28 30 32 32 33 34
41 41 39 38 36 35 34 32 29 27 28 24 19 15 14 14 14 14 15 17 18 19 21 24 25 25 26 25 27 29 30 30 31 31 34 36 37 37
40 38 36 36 35 33 32 29 27 26 25 20 20 18 18 16 17 18 20 20 20 21 22 23 23 23 26 30 31 32 32 33 35 35 35 38 39 40
39 39 39 36 34 34 31 28 27 26 25 24 22 19 19 19 18 19 19 20 21 23 24 26 27 29 31 30 33 34 35 36 37 37 37 39 41 43
38 39 38 38 33 30 29 26 28 27 25 26 22 21 20 20 20 21 22 24 26 27 28 29 32 34 35 36 37 39 42 43 44 44 45 46 48 50
31 33 31 34 35 31 30 26 28 27 27 26 23 21 22 22 22 24 25 27 28 30 31 33 34 34 34 36 38 41 43 46 47 49 49 49 51 53
36 32 31 32 30 29 28 27 28 27 26 25 24 24 23 24 26 28 29 30 31 30 30 29 29 31 34 37 41 45 48 49 51 51 50 49 51 53
33 31 30 29 29 29 28 27 27 26 26 25 25 25 26 28 29 30 30 30 29 27 28 29 32 36 40 43 46 49 51 52 53 55 55 54 52 49
32 29 31 30 31 29 28 29 28 27 26 26 27 29 29 29 30 30 30 28 28 28 31 34 36 39 41 42 42 43 43 44 44 44 43 44 44 44
34 31 29 24 31 33 30 31 30 27 28 29 31 30 30 31 31 30 28 28 28 32 34 36 37 36 38 39 40 41 41 41 41 41 41 41 41 41

GFSNE_500_spd_084.txt.gz
Wind_Speed
42 35 37 38 38 40 40 43 45 45 45 48 49 51 52 53 53 52 51 52 52 51 51 48 47 48 46 47 41 42 38 37 35 32 30 29 28 28
36 37 39 38 36 36 37 38 40 41 41 42 43 43 45 47 48 49 47 48 48 47 46 44 45 40 39 42 40 39 40 35 37 31 31 29 28 28
42 43 36 35 35 35 36 38 40 42 43 44 45 47 48 48 48 47 47 47 47 46 45 44 45 40 38 38 36 37 37 38 34 36 29 29 30 28
37 35 34 37 38 38 40 42 45 47 49 49 50 50 51 50 50 48 47 47 46 45 44 41 35 35 32 32 32 34 36 37 35 28 30 27 30 28
38 37 38 39 39 39 41 42 42 42 43 45 45 47 46 46 46 46 44 43 43 41 41 42 41 38 39 36 34 33 35 34 29 28 27 29 28 28
39 41 42 41 42 40 42 42 38 37 38 40 41 42 43 44 44 44 44 42 41 41 42 41 38 37 33 34 37 37 33 28 26 28 27 27 28 29
42 42 42 41 38 41 42 40 40 42 43 42 41 41 42 43 43 43 43 44 43 43 38 38 36 36 37 32 35 35 31 25 27 31 27 29 29 30
46 42 42 40 40 43 44 44 45 46 45 42 41 42 43 42 42 43 41 40 39 38 39 37 35 39 37 33 34 32 28 28 28 23 27 28 29 30
47 46 43 41 41 44 46 46 47 46 45 43 41 40 40 40 41 40 38 37 35 35 34 33 32 41 33 31 32 26 25 24 22 24 26 29 30 31
48 45 43 42 43 43 44 46 46 46 45 44 40 39 38 37 37 36 34 35 33 30 30 28 29 30 29 31 33 26 25 23 25 26 26 29 30 31
47 45 44 43 43 45 45 45 44 45 44 43 39 38 37 37 37 33 33 33 31 30 28 23 28 34 30 24 22 24 26 25 26 27 27 28 29 30
47 46 45 46 46 43 44 45 44 45 45 42 38 36 36 35 32 28 29 28 28 27 26 21 23 23 22 20 23 25 24 25 28 29 30 31 31 31
47 46 45 46 43 43 44 45 44 42 40 38 37 34 34 31 31 30 26 23 21 22 21 17 18 17 20 23 25 23 24 24 23 22 23 26 29 32
47 45 44 44 43 42 42 42 39 37 37 36 34 33 31 29 30 27 25 24 21 18 15 13 15 17 20 25 26 24 25 26 25 25 25 26 27 29
43 44 43 44 42 40 40 38 36 34 35 34 32 31 28 25 24 23 20 17 16 15 16 19 20 21 21 23 24 25 25 26 26 29 30 32 33 35
44 44 44 42 41 40 38 36 35 35 34 32 30 28 27 26 25 22 19 17 17 19 21 22 22 21 21 22 22 21 25 29 30 31 32 33 34 36
44 43 41 40 40 38 39 37 34 33 33 31 30 29 29 26 23 23 21 21 21 21 21 22 23 23 24 25 27 28 29 30 30 31 33 35 37 39
42 41 39 40 40 40 40 38 34 31 30 30 30 30 30 27 25 24 23 22 21 22 24 25 26 26 27 28 31 32 32 32 33 35 38 41 44 46
40 39 39 38 38 37 34 33 36 34 31 30 30 29 29 28 26 25 24 24 24 25 26 28 29 31 31 32 31 30 30 31 33 36 39 43 46 49
41 40 38 38 37 34 34 34 34 32 30 32 31 29 27 27 27 26 26 26 27 29 29 31 30 30 29 29 29 31 33 36 39 41 42 44 47 51
42 40 39 38 37 36 32 31 32 31 31 31 30 29 28 28 27 28 28 29 31 32 32 31 28 28 28 30 33 35 36 36 37 39 41 42 43 44
40 40 39 37 35 33 34 32 32 30 30 31 31 29 30 30 30 29 31 32 34 34 32 30 29 28 31 34 34 33 34 35 37 39 40 41 43 45
39 39 37 34 33 33 32 32 35 31 32 32 32 32 32 31 30 32 33 35 35 33 32 31 30 33 34 32 32 34 36 40 43 43 45 46 47 47

GFSNE_500_spd_087.txt.gz
Wind_Speed
37 39 43 46 34 30 31 33 35 35 34 34 36 39 39 41 44 45 47 48 50 50 50 49 46 45 43 43 41 41 42 44 42 42 39 38 32 31
33 35 28 30 31 31 31 32 31 31 33 34 36 39 41 43 46 47 49 50 50 51 50 48 46 45 45 42 41 40 36 40 41 41 39 37 34 30
36 35 33 31 30 29 29 29 32 32 33 35 37 41 44 45 47 48 49 48 48 47 46 45 43 41 40 39 38 33 33 35 35 36 37 36 36 30
37 37 35 32 30 31 31 32 33 35 35 36 38 39 38 39 40 42 43 43 42 42 42 41 41 40 38 39 39 37 38 39 38 31 35 30 30 38
38 40 37 36 35 34 33 36 37 37 35 37 38 39 39 40 41 43 42 42 42 43 43 44 43 41 41 40 38 37 37 38 36 33 33 37 29 28
40 39 41 41 41 39 39 41 43 41 39 41 43 43 43 45 44 44 44 44 45 45 44 44 44 43 42 39 36 35 33 33 37 36 33 30 26 26
42 42 42 42 43 43 42 42 42 40 39 42 43 44 45 45 44 45 45 43 44 44 44 42 39 39 37 37 34 35 36 33 36 35 31 24 23 27
43 43 44 44 45 47 47 45 43 41 42 43 44 45 48 47 46 44 43 42 42 42 39 37 36 36 37 33 33 35 33 31 33 31 26 26 29 30
48 47 46 48 49 50 50 46 44 42 43 43 43 43 44 44 43 42 41 41 40 38 36 34 32 33 30 28 28 34 38 33 27 25 24 23 23 23
51 52 54 54 52 51 52 47 45 43 44 43 43 43 42 43 44 43 42 40 40 37 33 32 31 31 30 21 26 26 24 20 21 23 26 25 24 25
55 55 55 53 53 50 49 47 44 43 43 42 41 44 46 46 44 43 41 39 37 32 30 28 30 30 25 21 21 22 21 22 22 23 23 23 25 26
54 52 53 51 51 48 48 46 44 42 41 43 44 43 45 44 43 41 39 36 32 29 29 27 25 23 24 20 17 17 17 18 20 23 22 24 29 29
52 52 51 49 48 46 46 46 44 40 41 44 42 41 40 41 39 39 36 33 32 29 30 28 25 24 21 15 16 19 17 17 19 20 22 22 23 26
50 51 50 47 45 45 47 45 41 40 41 41 40 38 38 38 37 34 33 32 30 29 28 25 23 20 18 16 18 18 16 19 22 22 22 21 20 20
49 49 47 46 46 47 45 43 41 39 38 38 37 36 36 37 33 31 31 28 26 25 23 22 19 16 17 18 18 18 19 21 22 22 21 22 23 23
53 49 48 48 46 45 43 42 39 37 37 37 36 36 37 35 31 29 28 26 25 24 22 20 18 18 19 20 21 20 21 20 19 20 23 25 27 27
54 52 48 47 46 44 43 39 38 37 36 37 36 35 34 32 30 29 28 26 24 23 22 21 20 20 20 20 21 21 23 24 25 25 26 26 27 28
52 50 48 47 45 44 41 39 38 35 37 38 36 33 32 30 29 29 28 25 23 23 24 24 23 23 22 23 25 26 27 28 30 31 30 29 30 30
51 51 48 46 44 42 41 38 36 35 35 32 33 35 32 31 30 28 27 26 25 26 26 26 25 25 26 28 29 30 31 31 29 28 28 29 31 34
47 47 47 45 43 42 39 37 35 33 32 33 35 36 34 32 29 28 28 28 27 27 27 27 27 28 30 31 30 31 28 28 28 29 31 32 33 34
49 46 45 44 42 41 39 37 33 34 33 33 34 35 34 32 30 29 28 28 29 28 28 30 30 30 32 32 31 31 29 30 31 32 31 32 32 33
48 45 42 41 41 40 39 36 35 33 34 32 32 35 34 33 30 30 29 29 29 29 31 31 32 34 34 33 33 31 31 34 33 32 32 34 36 40
41 40 39 38 38 37 38 36 35 34 33 32 32 33 32 33 33 32 30 30 31 32 32 32 34 35 35 35 34 33 34 34 34 35 37 39 42 42

GFSNE_500_spd_090.txt.gz
Wind_Speed
59 50 47 41 33 46 47 33 24 20 24 27 27 29 31 32 32 35 38 41 44 47 50 51 51 48 46 44 42 40 40 35 35 33 35 37 32 42
26 31 30 32 29 26 20 20 22 22 24 23 26 29 31 32 34 35 37 41 44 45 44 43 41 39 39 38 37 36 34 35 33 34 35 38 35 35
30 26 28 30 29 25 26 25 24 26 27 26 28 30 31 34 34 36 37 38 38 38 40 40 40 39 39 39 37 35 34 33 34 34 36 34 35 29
34 36 34 32 31 32 32 29 30 29 29 30 29 30 31 33 35 37 38 41 44 43 42 42 42 43 42 41 40 39 38 36 36 34 35 36 36 29
43 42 41 40 40 36 31 31 32 32 33 34 36 36 37 39 38 41 43 44 46 45 45 44 43 44 43 43 41 39 36 34 33 31 31 33 29 23
45 46 45 45 40 39 37 35 35 37 38 38 38 39 38 38 41 44 43 46 47 46 43 41 43 42 42 38 36 36 35 33 29 28 30 28 28 28
40 42 42 42 41 40 38 38 39 39 40 41 41 40 39 41 42 44 43 44 43 42 41 41 40 40 38 36 35 34 35 30 28 26 32 29 30 26
41 41 41 41 41 40 40 40 41 42 43 42 43 40 41 41 43 41 40 40 39 38 40 40 40 38 35 34 31 30 29 23 26 29 29 25 24 24
46 44 43 43 42 41 43 44 43 44 46 47 46 43 42 41 41 40 39 40 43 42 41 41 38 35 33 32 29 27 24 22 19 19 19 22 25 26
52 51 49 49 48 47 46 47 47 50 50 49 46 44 41 40 41 41 41 42 44 44 43 41 35 31 30 27 25 26 25 19 11 12 15 21 21 22
54 53 52 52 52 52 52 52 54 52 50 47 47 43 41 38 39 41 42 43 43 40 38 36 31 29 28 26 25 26 23 16 12 15 15 16 16 20
54 54 53 53 53 52 53 53 53 50 49 47 45 42 41 39 38 41 42 39 39 36 34 33 30 31 27 27 25 24 22 16 14 14 15 17 18 20
54 54 54 54 55 55 53 51 51 49 47 45 44 43 40 38 39 38 37 35 37 35 30 31 31 29 27 25 25 25 20 18 17 18 16 16 17 17
54 55 55 54 52 51 51 50 48 47 46 42 44 42 41 39 36 36 34 33 35 29 30 31 28 25 25 24 23 22 18 17 18 18 16 17 17 17
54 54 53 53 50 51 48 47 46 45 44 43 44 42 39 37 36 35 33 33 31 29 26 24 21 20 20 18 18 18 16 17 18 18 18 18 18 17
56 57 53 51 50 51 49 46 45 45 45 46 44 41 37 36 35 35 33 30 28 27 23 22 21 20 19 19 18 18 19 19 19 19 19 19 20 20
58 58 54 52 49 52 54 52 47 47 47 45 43 39 37 35 35 34 30 28 27 26 24 24 22 20 20 20 19 20 19 20 20 20 21 22 23 24
58 50 53 53 53 51 54 55 52 48 46 45 42 38 36 36 37 32 29 27 27 26 26 24 24 22 20 19 20 21 22 22 23 24 26 28 28 28
55 57 52 52 51 47 46 52 52 48 46 44 41 37 37 38 36 33 28 27 27 26 26 25 24 22 22 23 24 23 25 26 28 30 30 31 30 28
56 51 51 52 50 50 45 46 48 46 45 43 39 37 37 36 31 33 31 30 28 26 27 28 26 23 25 26 26 26 27 28 28 28 28 27 28 30
57 51 42 44 48 48 48 46 48 46 44 41 38 37 36 35 34 34 34 32 30 28 29 29 27 27 27 28 29 28 28 28 29 29 28 29 31 32
51 55 55 51 46 45 44 43 43 43 42 40 39 37 37 34 32 33 35 34 32 31 31 30 29 29 29 30 31 30 30 31 31 31 31 31 32 32
44 48 54 50 44 43 44 41 40 41 41 40 39 36 36 34 31 32 34 34 34 33 32 31 31 30 31 31 31 30 32 33 34 34 33 32 33 35

GFSNE_500_spd_093.txt.gz
Wind_Speed
46 47 47 41 46 56 47 43 45 48 48 32 24 13 14 17 19 22 25 30 33 35 37 38 40 40 38 38 37 36 36 34 33 33 31 30 29 33
32 35 36 44 43 41 46 37 48 41 24 17 17 20 21 22 24 26 28 31 32 35 36 38 38 40 40 38 38 37 38 36 35 34 32 28 29 31
30 27 29 31 34 30 23 22 22 20 19 19 21 23 25 26 28 30 32 33 36 39 40 42 43 43 41 40 39 39 40 38 37 36 33 31 29 30
32 33 31 32 33 26 28 25 27 27 26 26 28 28 28 30 30 30 33 36 37 38 40 41 44 45 42 41 40 40 40 40 35 33 30 29 28 29
37 33 33 31 34 36 33 33 33 35 36 33 32 32 30 31 32 34 36 36 38 40 41 43 44 42 40 39 40 38 37 33 31 30 29 30 30 25
44 44 42 43 45 44 40 38 39 36 36 35 35 33 35 36 35 36 38 38 38 40 41 41 38 37 39 39 39 38 35 32 31 28 28 25 24 22
52 53 52 51 53 52 47 44 43 42 40 38 39 39 40 40 38 37 38 40 39 39 41 40 38 40 41 41 40 38 32 29 28 25 18 20 23 20
51 48 49 47 49 48 47 45 44 42 42 41 41 42 42 40 40 40 38 40 40 40 41 40 40 40 42 41 41 35 30 27 25 22 23 21 21 15
52 51 50 50 48 48 47 45 45 43 43 42 42 43 43 41 44 41 41 41 40 40 42 43 42 43 40 39 35 31 27 24 24 22 23 19 17 14
56 55 53 53 53 52 51 48 47 45 45 45 46 45 45 46 43 42 42 42 41 39 41 42 42 41 39 34 30 28 26 25 25 26 24 17 16 14
63 61 58 57 56 55 54 53 51 49 49 48 49 49 48 48 46 44 43 42 41 39 40 43 41 38 33 29 28 27 25 25 23 23 22 17 15 13
63 62 60 62 61 59 58 57 55 55 54 51 51 51 49 47 46 44 43 41 40 39 39 39 38 35 32 29 29 26 25 24 22 23 23 20 18 14
60 61 62 62 62 61 61 59 58 56 54 53 53 50 48 46 45 43 41 40 40 38 36 37 37 34 30 27 27 24 23 23 22 25 23 19 17 16
63 62 62 62 62 61 59 57 55 54 54 53 50 47 45 45 43 41 40 39 39 36 35 35 33 31 28 25 25 23 22 21 19 20 20 20 19 18
65 64 64 61 60 59 57 55 52 50 50 50 47 45 44 42 41 40 40 40 37 34 33 32 28 26 22 21 20 18 18 17 18 20 20 20 20 19
63 63 63 63 60 59 56 53 52 51 50 50 46 45 43 42 40 40 41 39 36 34 32 29 25 23 20 19 18 18 19 20 19 18 19 20 20 19
61 61 60 60 58 59 56 53 52 51 49 48 48 46 45 43 41 40 40 38 35 34 30 28 26 24 22 21 21 22 21 20 19 18 19 20 20 20
62 59 56 57 57 55 57 55 55 53 52 51 50 48 47 44 42 39 39 38 36 33 30 29 27 25 26 25 24 23 21 19 19 21 22 22 23 25
57 59 55 56 53 53 53 52 51 52 51 50 50 50 50 49 43 39 39 38 36 35 32 31 28 27 27 27 26 23 22 22 22 22 23 24 26 28
51 48 57 56 52 44 48 47 47 48 50 51 51 48 48 47 39 38 39 38 36 36 32 33 30 29 28 28 27 25 24 24 23 23 25 27 28 28
56 53 50 55 53 51 50 44 41 45 49 48 49 47 44 42 38 39 39 38 35 33 36 35 33 29 30 30 30 28 26 25 24 25 26 27 28 29
55 55 52 52 58 47 52 51 50 49 49 45 44 43 41 38 38 40 39 36 35 37 40 37 32 33 32 32 32 30 28 27 27 27 27 27 29 31
53 52 53 51 54 58 48 43 39 42 43 41 42 43 40 39 40 40 37 36 35 36 39 37 37 35 33 34 34 32 31 29 29 28 28 29 31 33

GFSNE_500_spd_096.txt.gz
Wind_Speed
52 52 54 50 45 46 46 43 43 42 47 45 48 49 49 53 36 19 18 18 19 22 24 27 30 35 37 41 41 42 40 38 37 37 35 33 34 31
50 49 51 47 40 40 41 41 48 48 48 45 58 62 54 32 23 25 23 26 27 27 29 31 34 37 39 41 43 43 43 38 38 37 38 35 36 32
42 50 40 35 45 44 39 42 44 42 43 44 47 42 31 31 29 26 27 30 30 32 33 34 36 38 39 41 44 44 40 38 39 37 36 33 33 31
34 32 36 34 30 34 34 30 30 33 32 28 24 25 27 34 28 33 35 33 32 33 35 37 39 40 40 43 44 40 39 39 40 41 38 34 33 32
41 40 39 34 33 37 38 34 28 36 33 37 30 32 31 33 40 39 37 35 33 33 34 38 41 42 41 42 43 42 41 41 41 40 33 34 34 32
33 33 35 35 36 33 40 39 32 41 38 35 37 35 41 45 44 43 40 37 34 34 37 40 42 42 41 41 43 42 42 42 42 40 34 34 28 23
47 47 44 44 44 46 41 41 48 49 50 44 43 41 43 44 45 45 43 39 36 38 40 41 43 42 40 40 42 43 45 45 42 36 33 29 25 21
55 56 56 58 58 58 59 60 61 57 55 52 49 48 46 47 47 47 43 40 39 42 42 43 42 42 41 41 42 43 45 43 38 34 29 26 22 22
55 56 58 59 60 58 59 58 54 55 45 51 51 37 49 53 50 48 44 43 42 43 43 43 43 43 42 41 41 43 44 38 33 30 26 25 25 24
62 61 60 59 59 60 59 58 56 57 57 62 55 55 55 52 49 47 45 44 45 45 44 43 44 44 42 41 41 42 39 34 30 28 27 27 26 22
67 68 64 63 62 62 62 61 60 60 59 58 55 54 53 51 49 48 48 47 49 47 44 43 44 43 42 39 39 38 36 32 31 27 26 26 24 21
73 73 72 68 68 68 66 64 63 62 61 60 59 58 56 53 53 51 51 51 49 46 43 43 42 42 40 38 37 37 33 32 30 26 27 25 23 25
77 74 76 75 73 71 71 70 69 69 66 64 63 62 61 59 57 55 53 51 47 44 42 41 41 38 38 36 37 36 32 31 29 25 26 23 21 23
80 74 69 75 76 73 71 71 71 70 68 66 66 64 63 61 59 57 56 48 44 42 41 41 38 36 35 35 36 35 33 30 28 26 25 22 19 21
66 70 68 72 75 74 70 70 69 66 67 65 63 61 58 56 54 54 48 45 41 40 40 38 35 33 34 33 32 32 32 28 26 24 21 20 20 21
79 77 76 77 77 74 72 72 70 66 64 62 61 60 55 52 51 47 45 44 41 40 40 36 33 33 32 31 30 30 27 24 23 20 19 19 20 21
79 77 73 72 73 71 70 69 68 63 59 57 55 54 50 48 48 49 47 45 43 42 40 33 33 33 31 31 30 29 26 25 23 22 21 21 21 22
73 72 67 64 63 54 53 63 61 59 56 54 52 52 50 49 47 47 47 45 43 43 37 33 34 32 31 31 31 29 28 28 25 24 23 22 22 21
64 62 60 57 55 59 56 48 54 51 46 51 51 48 50 44 48 48 45 45 44 42 39 35 35 34 33 33 31 29 29 28 27 26 24 23 23 24
58 57 53 50 52 52 58 53 56 50 45 45 48 46 44 46 50 48 46 45 46 45 40 36 35 35 37 32 31 32 29 30 29 28 27 26 25 25
53 52 49 49 48 47 52 52 52 54 52 50 49 49 46 47 45 39 41 45 46 44 38 35 36 37 32 31 33 33 31 31 31 30 29 28 27 25
49 51 47 44 46 48 50 55 50 53 53 46 46 47 44 41 40 42 46 46 44 42 36 36 35 32 33 34 33 33 34 33 33 32 31 30 29 28
40 48 49 44 43 48 49 51 49 50 51 39 49 49 47 39 38 42 45 44 43 43 36 35 35 34 34 36 37 36 35 36 36 35 34 32 30 30

GFSNE_500_spd_099.txt.gz
Wind_Speed
52 49 50 53 43 44 40 42 52 53 47 49 50 52 52 44 44 42 43 48 43 32 28 28 28 26 27 29 33 37 40 40 44 44 44 39 38 38
46 45 50 51 47 48 49 51 51 49 47 45 46 49 50 53 48 49 48 45 34 31 32 33 31 32 33 32 35 37 38 42 43 42 41 40 38 39
49 52 49 51 48 51 56 59 49 47 44 45 46 48 52 54 56 52 51 44 35 38 32 29 35 39 38 36 37 37 39 43 44 44 42 41 40 39
56 48 44 51 54 52 47 42 46 42 45 39 42 51 51 50 54 55 44 39 37 37 36 39 39 40 40 41 38 39 41 43 43 44 44 44 45 42
43 44 39 37 41 37 38 38 44 43 40 31 33 38 36 39 42 41 35 36 35 36 39 43 41 39 39 39 39 39 42 43 42 44 44 44 45 42
41 41 44 44 45 46 43 40 40 43 43 39 38 41 36 35 35 33 35 37 40 43 47 44 42 40 41 39 40 41 43 44 43 43 44 45 44 38
50 50 45 43 43 43 42 41 41 37 39 43 48 46 41 37 40 43 46 49 53 54 51 47 46 43 41 40 41 41 43 44 44 43 45 45 42 35
53 54 54 55 53 53 52 50 45 45 46 43 50 52 49 51 51 51 52 52 54 52 52 51 49 44 42 41 42 42 43 44 43 42 44 43 36 30
59 57 56 58 58 59 60 61 59 59 57 53 47 50 55 57 56 55 56 54 54 52 53 52 50 45 43 43 43 43 43 43 42 42 41 36 31 29
67 65 63 61 61 62 63 62 60 62 59 60 60 63 62 63 55 52 51 53 52 54 53 50 47 44 42 44 45 43 42 42 40 41 39 32 30 28
75 75 73 69 67 67 67 65 65 64 62 59 57 62 56 58 48 47 57 54 53 48 51 49 47 44 44 44 44 42 41 40 39 40 36 31 30 28
86 83 80 78 76 73 71 69 69 67 67 66 66 65 65 71 64 66 61 55 56 54 52 47 46 46 45 43 42 40 40 39 38 38 35 31 29 28
94 90 88 86 82 80 78 76 72 73 72 71 70 68 66 68 66 64 62 59 56 54 52 48 47 49 50 46 40 40 40 38 38 36 33 32 29 27
84 82 85 88 90 87 83 80 79 77 77 75 73 72 69 66 65 64 62 59 57 57 56 54 55 55 47 39 38 39 37 36 37 36 32 32 29 27
73 74 74 78 81 83 85 85 83 80 79 77 74 73 71 70 68 65 62 58 57 58 56 56 54 49 40 38 39 37 35 35 35 31 29 30 28 28
66 70 73 83 84 84 85 85 81 77 74 72 72 71 70 68 64 61 58 53 51 48 49 50 48 43 40 38 37 34 34 33 30 27 27 27 26 25
57 60 66 77 83 81 81 79 70 59 68 70 67 67 66 63 59 57 53 51 49 48 50 48 43 40 40 40 35 35 35 30 28 27 26 24 24 23
49 50 53 58 69 77 74 73 75 58 47 47 61 60 59 57 55 53 50 49 49 47 45 43 41 41 41 39 37 35 32 30 28 27 27 25 25 25
45 45 47 51 54 62 64 62 61 62 48 48 47 49 44 49 48 47 47 46 45 44 43 41 41 43 41 38 37 35 32 31 29 29 28 28 28 26
40 39 39 43 45 45 43 41 46 54 53 49 43 42 43 44 39 38 43 42 45 44 40 39 40 41 40 39 36 34 33 31 30 32 30 30 30 28
37 36 34 36 37 37 35 37 40 47 49 45 47 46 45 40 39 42 46 44 42 39 37 37 39 40 39 40 34 34 35 32 32 33 32 32 32 31
34 33 30 31 32 35 36 41 39 44 55 59 46 44 50 50 49 45 45 46 42 36 37 34 36 34 36 39 36 34 33 34 34 35 33 33 34 34
34 32 28 28 32 36 39 41 36 41 42 51 52 43 42 36 39 45 45 41 36 34 33 39 35 34 35 37 33 32 33 35 34 34 35 35 35 36

GFSNE_500_spd_102.txt.gz
Wind_Speed
51 49 46 42 41 42 43 49 49 39 43 45 45 42 47 50 47 49 50 53 53 47 43 42 42 40 38 36 34 33 32 32 31 34 33 37 39 41
48 50 50 49 51 50 50 55 52 54 53 51 50 47 48 46 46 47 50 49 51 45 43 43 43 43 41 38 37 38 37 35 34 35 36 37 39 42
47 50 54 57 53 56 51 48 49 54 54 53 53 54 51 47 47 47 47 49 49 50 48 46 44 42 42 40 37 39 39 40 38 38 38 38 40 43
44 46 45 48 50 49 51 57 57 56 54 54 55 57 51 50 45 47 48 42 50 54 51 46 44 45 42 39 35 40 42 40 40 39 38 39 41 44
54 48 50 54 52 55 50 54 53 54 56 56 48 49 50 49 43 46 47 52 53 50 52 53 45 42 42 39 42 43 42 41 40 41 39 40 41 43
37 39 40 36 36 45 49 45 46 44 40 43 44 43 42 39 36 41 41 42 43 48 45 45 43 46 40 42 44 43 41 42 41 42 40 40 42 44
50 52 52 50 49 45 48 50 50 48 40 41 38 46 47 44 42 45 43 40 37 36 36 38 38 39 42 46 48 44 44 43 43 43 39 43 43 43
53 55 55 58 58 56 57 54 53 60 55 47 49 41 43 47 51 49 45 41 44 41 42 44 47 50 52 52 49 46 46 44 42 41 44 44 41 40
64 63 62 63 62 63 61 60 60 61 61 56 57 50 54 51 44 45 52 53 44 44 46 50 53 55 52 48 48 46 46 47 49 45 46 41 39 38
74 76 75 73 72 71 68 67 66 63 61 62 64 61 60 58 53 51 53 52 44 44 49 57 53 54 52 47 45 49 47 47 44 43 43 42 39 36
86 87 87 87 84 82 79 75 72 69 69 67 66 64 63 61 60 63 51 47 52 54 49 45 47 43 42 45 44 46 46 44 43 44 44 48 38 35
100 101 98 96 93 91 87 84 81 78 76 73 71 69 66 64 59 60 60 62 53 51 54 52 52 54 45 35 38 41 40 41 43 46 52 43 36 35
116 115 116 114 106 98 93 91 87 85 83 81 77 74 72 68 64 65 62 60 52 52 57 60 50 43 36 37 39 40 40 44 51 49 42 36 36 34
110 106 100 91 90 88 85 91 92 90 86 82 82 79 77 73 71 69 67 69 70 66 65 66 59 49 41 41 45 45 49 49 45 40 37 35 36 33
85 77 73 70 73 78 86 90 91 92 91 86 81 79 77 75 77 75 72 68 63 62 61 58 54 51 46 51 49 47 44 44 39 36 35 33 35 31
73 69 66 63 66 73 84 90 87 86 86 85 80 82 79 75 74 77 74 71 66 61 59 55 53 56 55 49 44 41 40 36 36 36 34 33 33 29
62 59 58 58 60 65 70 78 84 81 80 78 65 52 55 73 70 72 71 69 67 55 57 55 53 50 47 41 40 38 36 36 35 35 36 33 31 27
50 48 50 52 52 53 56 58 65 71 69 67 63 56 53 60 69 67 61 58 58 57 54 51 48 44 42 41 40 37 36 35 35 36 35 32 30 26
41 40 41 41 42 43 44 46 46 50 55 58 53 69 58 52 44 53 62 58 54 53 50 47 44 42 42 42 40 38 36 35 36 35 33 32 32 29
34 33 32 34 36 38 39 40 40 37 36 41 48 43 50 46 45 43 51 52 47 47 46 43 42 42 43 42 38 38 36 34 37 34 32 33 32 31
30 29 29 30 31 32 33 35 35 29 30 33 35 49 51 40 36 49 47 41 44 43 40 41 43 43 42 38 37 35 34 35 38 36 34 33 32 31
28 28 27 27 26 26 27 30 33 38 35 36 39 39 49 54 37 36 44 47 44 44 44 41 40 40 36 36 35 33 31 31 37 38 35 32 32 31
28 27 26 24 22 23 26 29 37 39 36 42 43 42 44 46 44 38 38 43 44 50 52 41 40 39 34 33 31 29 29 31 34 36 33 33 34 32

GFSNE_500_spd_105.txt.gz
Wind_Speed
57 45 49 53 48 46 50 51 49 42 38 39 39 35 37 38 42 45 44 41 43 47 47 46 44 47 47 43 40 39 37 37 34 34 33 32 31 31
55 51 55 54 53 52 49 50 51 45 44 42 44 43 45 48 50 54 53 47 45 49 48 45 44 45 45 44 41 40 40 38 36 35 36 36 35 35
46 48 51 50 50 47 49 47 48 48 48 52 50 50 50 52 53 48 56 52 51 49 47 44 45 42 47 46 43 44 41 37 35 35 31 38 37 36
42 49 51 48 48 45 46 45 51 56 63 60 54 53 54 53 51 55 51 52 53 51 47 46 47 42 48 48 46 46 38 37 35 32 38 38 37 35
45 47 45 50 49 47 48 49 46 48 44 51 51 58 62 62 57 57 57 53 53 50 47 46 46 48 48 46 48 46 41 37 41 37 39 38 38 37
34 35 36 37 35 36 41 42 47 46 50 48 47 47 50 52 52 50 48 46 47 46 42 43 47 49 47 46 46 49 44 42 40 38 38 39 38 37
39 41 41 45 47 45 43 46 41 37 42 46 42 43 42 42 40 41 41 38 37 38 40 39 40 43 41 42 39 40 40 39 40 40 41 42 40 37
46 49 49 49 50 52 54 53 54 55 50 49 50 49 44 39 40 46 44 44 46 44 45 43 44 39 35 34 34 34 37 40 42 44 42 43 40 41
55 58 60 60 61 62 63 62 62 62 61 60 60 55 50 54 53 47 50 47 47 46 47 47 48 45 40 37 38 39 41 45 45 45 43 41 39 37
63 65 68 69 72 73 74 73 73 71 68 68 67 64 63 63 61 56 59 54 56 48 45 51 57 54 52 39 39 42 46 46 48 43 42 43 38 38
74 76 77 79 82 84 84 84 82 81 80 78 76 73 70 69 68 69 68 70 57 61 55 52 45 54 47 42 42 42 40 40 44 45 36 39 38 35
81 84 86 89 91 93 93 94 93 91 89 89 85 82 79 76 73 71 72 73 69 66 61 58 47 50 47 42 38 35 34 33 31 32 32 34 37 43
92 95 98 101 103 107 109 109 109 109 103 95 92 90 86 83 79 77 75 74 71 64 58 54 51 58 47 40 40 38 41 33 33 33 36 39 39 39
101 105 110 115 119 122 123 120 117 111 103 94 93 93 91 88 85 81 79 77 72 68 59 58 59 56 54 52 52 41 39 37 35 33 36 40 37 35
115 117 119 119 112 103 95 89 88 86 83 84 91 95 94 91 88 85 80 79 76 71 65 65 68 65 60 57 50 45 39 30 33 33 36 35 34 33
110 105 97 91 87 81 74 69 69 70 71 73 87 91 88 86 82 78 79 78 69 73 69 67 60 61 65 59 46 39 38 37 35 37 38 33 33 32
83 79 75 71 66 60 57 58 61 65 68 69 76 81 76 79 69 66 64 54 73 71 58 60 69 63 58 55 51 46 42 41 40 38 34 33 32 33
61 57 54 50 48 47 48 50 52 56 58 60 61 57 59 68 70 67 64 65 54 67 68 69 65 62 59 54 50 48 45 40 40 37 34 33 34 33
47 45 43 41 37 35 35 35 36 38 40 40 41 39 41 53 72 64 52 51 54 59 48 48 54 53 54 49 49 44 42 40 40 37 36 35 36 34
39 38 37 31 26 26 26 27 29 31 31 33 33 35 39 41 50 68 61 47 53 49 48 42 47 47 49 51 44 43 43 41 40 38 37 36 36 36
33 33 30 22 22 22 23 24 26 28 29 32 36 46 47 47 46 63 65 46 59 49 59 52 44 41 41 43 37 39 41 40 39 38 37 38 38 37
28 27 23 19 20 19 19 21 24 26 28 32 39 46 48 46 43 47 55 57 42 34 35 50 58 46 39 39 42 42 42 41 39 39 38 38 38 38
25 21 19 18 18 16 17 19 22 25 29 31 35 44 43 46 46 39 44 42 41 40 43 46 48 52 46 42 41 42 41 39 38 37 38 38 37 38

GFSNE_500_spd_108.txt.gz
Wind_Speed
51 53 54 53 55 57 55 54 58 59 58 48 48 49 41 38 36 36 36 36 37 43 42 42 39 38 44 42 40 40 39 39 38 36 36 35 32 30
55 50 49 53 49 52 61 52 51 52 55 49 46 47 47 46 44 44 42 44 41 43 46 47 49 41 40 41 42 44 40 39 37 37 37 37 32 30
51 50 51 47 41 43 51 56 56 56 55 53 47 49 51 54 49 50 48 47 46 49 49 48 52 48 44 43 44 44 41 40 39 40 44 34 30 26
45 45 47 51 45 44 46 47 50 54 58 51 51 51 51 52 50 53 55 53 50 47 47 50 50 51 46 45 46 45 41 41 42 44 42 27 30 29
40 45 47 47 48 50 52 50 50 49 46 45 47 48 49 54 59 63 57 56 54 53 53 51 56 52 45 47 46 46 42 40 40 45 40 36 36 35
38 37 37 33 35 38 36 39 38 39 41 48 51 53 53 44 44 45 49 50 53 55 55 52 49 49 48 48 46 43 41 41 38 38 41 39 35 35
36 39 39 39 41 40 39 40 42 41 40 44 42 41 39 41 46 45 49 47 45 45 44 43 43 42 40 39 38 38 39 39 42 40 40 36 34 35
42 45 46 46 47 48 48 47 49 49 47 47 50 49 47 45 41 44 43 42 41 39 39 38 37 38 39 38 38 39 39 39 36 32 31 31 34 36
49 51 53 54 55 57 58 58 58 58 58 57 55 55 55 53 52 53 51 44 41 46 42 42 43 44 43 43 41 43 41 37 35 34 32 34 35 37
60 61 62 63 65 66 67 68 68 68 68 68 66 65 65 63 61 58 56 56 52 54 54 47 51 49 44 44 46 46 44 41 39 36 36 36 37 39
67 69 71 72 74 75 77 77 77 78 78 78 77 76 75 73 69 68 65 63 62 61 62 60 59 54 51 47 48 53 50 52 43 40 41 40 37 35
74 77 79 80 81 82 83 84 84 85 87 87 87 86 84 82 82 78 73 72 69 68 66 66 66 63 63 57 56 53 45 48 49 47 40 36 32 28
80 81 82 83 85 87 89 90 91 92 93 94 95 94 93 93 89 86 85 80 79 74 72 72 71 62 58 53 48 50 46 48 49 47 41 36 33 29
87 88 89 90 92 94 96 97 98 100 102 104 104 104 104 102 98 90 87 86 86 82 80 79 76 77 77 70 68 54 55 53 52 44 40 39 30 28
87 89 92 95 98 101 105 109 110 111 114 116 116 117 116 111 105 94 91 92 91 90 87 83 80 79 75 62 58 64 55 56 50 41 39 31 28 25
93 95 99 103 106 110 113 114 112 111 111 109 107 106 99 92 86 85 90 93 94 90 83 81 78 77 73 63 62 59 57 55 55 50 46 35 28 28
94 97 99 99 97 94 92 91 88 81 77 76 73 72 71 71 71 75 86 89 83 82 73 73 71 72 68 60 62 61 62 63 60 53 34 31 33 33
87 84 81 79 78 74 68 62 58 53 50 50 51 51 55 62 65 66 70 74 75 67 53 67 64 58 63 60 58 61 62 53 42 37 34 35 35 33
71 68 62 58 55 52 47 43 42 41 39 38 40 41 44 48 50 47 39 46 63 75 72 64 72 60 54 60 65 57 56 54 44 39 39 38 38 38
51 46 42 43 40 38 38 35 29 26 26 26 27 29 32 35 38 49 46 45 49 64 74 60 60 68 60 62 66 64 61 49 45 44 44 42 42 41
36 34 35 34 34 34 27 21 21 22 23 24 27 31 35 41 45 47 50 45 51 60 51 79 66 55 53 54 50 45 48 49 49 46 49 47 43 42
30 30 28 31 31 23 17 18 18 19 21 22 26 30 35 41 42 51 50 48 44 63 56 49 66 45 55 47 44 50 46 47 47 50 49 43 43 42
28 25 26 27 20 15 14 15 15 17 19 21 25 29 35 39 31 32 44 47 39 48 41 42 44 40 46 37 49 52 55 50 48 44 41 39 40 41

GFSNE_500_spd_111.txt.gz
Wind_Speed
56 55 53 52 53 56 51 51 49 51 49 50 53 55 51 51 53 49 44 44 46 43 42 42 40 43 39 41 37 37 39 40 34 33 32 31 32 30
48 53 57 59 57 56 54 47 45 48 52 51 52 54 53 54 56 50 43 40 38 40 42 42 40 38 40 42 42 42 39 37 36 34 34 33 31 32
50 51 49 51 52 52 49 50 48 44 46 49 51 53 56 50 51 48 47 45 46 46 46 45 46 43 43 45 46 44 46 44 42 39 32 33 34 34
42 43 44 46 43 44 46 50 50 53 48 47 50 46 46 45 52 53 51 48 51 52 54 54 51 48 46 47 46 43 46 46 42 40 35 33 36 35
43 44 44 39 43 49 51 47 52 47 48 48 47 45 46 42 47 50 52 49 53 54 52 54 54 53 48 45 39 43 46 44 44 39 36 34 33 33
42 43 46 46 45 46 45 43 43 45 44 40 39 40 44 44 48 47 48 50 48 47 52 54 59 54 52 49 45 47 51 47 48 42 37 35 33 29
38 42 48 42 45 40 41 39 38 38 35 37 38 33 37 34 35 32 34 30 31 39 40 42 44 44 43 45 43 43 47 45 44 39 33 31 32 31
43 43 44 44 48 48 47 47 45 45 45 45 46 44 44 44 45 44 40 38 37 35 35 34 34 35 39 40 40 44 45 41 39 35 32 31 32 32
49 49 50 51 53 53 54 54 54 54 54 54 54 53 52 52 52 52 51 47 45 44 42 41 35 31 31 34 33 36 37 40 36 34 32 32 31 30
56 57 58 59 60 61 62 62 63 63 63 64 63 62 62 61 59 58 58 57 55 51 49 47 45 43 41 37 37 37 37 42 40 37 36 34 32 32
65 66 67 69 70 71 72 72 72 72 72 73 72 72 71 70 71 70 67 65 63 60 58 56 52 51 51 49 48 45 42 38 40 42 38 39 37 36
69 73 75 76 77 78 80 79 79 79 78 79 79 80 80 80 79 78 77 75 71 68 65 64 62 59 58 55 55 54 51 48 45 41 40 44 41 44
72 74 76 79 81 82 83 84 86 86 85 84 84 84 85 85 85 84 82 82 81 78 71 72 68 66 65 62 62 61 59 56 54 51 45 43 44 43
76 76 77 79 80 81 83 84 85 86 87 87 88 88 89 89 90 90 90 88 86 84 81 78 76 74 72 71 69 66 64 58 54 54 47 44 43 42
75 76 77 79 81 83 86 88 90 91 91 92 92 93 94 93 95 95 95 95 92 89 87 85 80 78 79 77 77 71 66 62 60 55 53 47 46 44
76 77 80 82 85 87 89 91 93 94 96 97 98 100 101 101 101 102 102 98 99 96 94 90 87 84 85 86 84 81 74 68 61 57 56 53 49 51
77 79 82 84 86 88 88 91 93 94 96 98 100 101 104 106 107 107 105 102 99 101 97 95 85 88 92 91 87 76 69 74 79 64 55 56 53 55
78 79 80 79 78 78 78 78 77 77 77 78 78 78 78 79 80 80 79 77 77 77 79 81 83 88 91 85 80 74 62 55 58 66 50 54 57 58
70 69 66 64 62 61 60 58 54 51 51 51 49 48 48 49 49 49 53 58 63 68 73 78 78 80 79 72 60 61 72 70 67 54 59 55 57 58
57 54 51 49 46 45 43 41 38 38 38 38 36 34 34 35 34 34 37 38 40 46 53 60 59 50 58 73 60 56 43 50 60 60 65 54 60 50
44 42 40 39 37 37 36 34 35 34 29 25 24 23 23 25 25 25 29 32 34 32 36 36 51 65 38 61 63 74 67 57 61 61 67 61 53 47
38 35 32 30 31 31 31 31 26 18 18 17 17 17 18 20 22 25 32 40 36 31 28 42 45 66 58 48 56 65 54 57 65 55 56 46 46 44
34 31 30 29 27 25 22 13 11 12 13 13 13 13 14 15 13 19 28 36 45 36 23 37 45 52 60 56 40 55 58 50 56 53 52 46 46 52

GFSNE_500_spd_114.txt.gz
Wind_Speed
51 50 52 50 51 51 49 51 47 51 58 53 47 47 49 52 47 48 50 45 47 47 47 46 44 43 45 47 45 44 40 36 30 28 35 34 28 27
49 49 50 54 53 52 49 47 53 56 61 61 53 48 47 49 48 51 55 53 50 52 51 48 44 40 44 46 46 45 43 42 42 39 36 30 30 28
42 41 41 42 43 46 50 53 58 59 58 56 53 48 46 44 46 48 49 50 53 53 51 47 41 38 40 44 45 43 44 43 44 42 42 39 37 32
46 47 50 52 51 54 53 49 53 55 54 54 49 49 46 48 46 53 49 48 46 49 50 49 46 43 46 48 43 46 45 44 43 43 41 40 39 34
42 44 46 43 47 52 49 48 52 46 47 47 44 48 47 47 46 44 39 42 43 47 50 54 52 48 49 54 56 53 51 45 44 42 41 40 38 34
41 43 42 41 42 45 46 47 50 49 49 52 49 52 49 46 42 45 44 48 47 44 41 44 47 45 45 46 48 51 51 47 47 39 39 42 42 34
39 38 40 47 46 42 42 42 52 50 48 52 51 49 46 49 46 43 42 38 36 39 32 30 36 43 40 38 42 45 48 49 49 44 42 45 45 44
40 38 43 45 44 45 46 46 44 46 47 42 40 40 42 39 36 41 36 30 37 32 35 35 30 26 27 27 24 31 37 39 39 41 44 46 40 36
47 48 49 50 50 49 51 51 51 51 51 51 51 51 51 52 50 48 50 48 46 43 41 40 37 35 32 29 27 24 24 32 36 38 39 40 35 32
54 55 56 57 58 59 59 59 60 60 60 60 59 59 59 59 58 57 55 54 53 52 51 46 46 43 41 39 36 32 29 26 27 28 28 31 33 32
56 57 58 59 60 63 64 64 66 68 69 69 69 69 68 67 67 67 66 64 60 59 59 57 53 52 49 46 43 41 38 34 35 32 29 29 32 33
63 65 67 68 69 68 68 70 70 70 70 74 77 78 77 77 76 74 73 73 71 68 65 65 62 60 58 54 51 49 47 45 44 41 39 36 33 34
68 69 71 72 73 74 74 75 76 77 76 76 78 81 83 84 83 83 81 79 77 76 74 72 70 68 66 63 61 58 55 52 51 49 46 45 41 36
73 74 74 75 75 77 78 79 79 79 79 78 78 81 82 83 85 86 85 86 85 82 80 81 78 74 72 70 68 67 63 60 57 55 52 51 49 45
69 71 71 72 74 75 76 77 78 78 79 78 78 78 80 81 82 83 86 87 87 86 85 83 84 82 78 74 73 72 72 68 66 61 59 58 56 53
65 68 71 73 75 77 77 79 81 82 81 82 82 82 82 83 84 86 86 87 87 87 87 87 85 86 84 81 79 77 77 76 72 69 67 65 64 60
65 67 70 72 73 74 76 78 79 79 80 81 82 83 83 84 87 88 88 88 88 87 88 88 88 89 88 87 85 83 81 80 78 74 69 64 66 60
64 66 67 67 68 68 69 70 71 72 71 72 73 75 78 80 81 80 83 85 87 87 87 86 87 90 91 89 85 85 86 84 83 82 80 75 70 62
65 64 61 59 58 57 57 56 54 52 52 51 53 55 58 60 61 62 64 68 71 73 72 74 77 81 85 87 86 85 88 88 89 83 81 75 72 68
60 55 51 49 47 45 43 41 38 36 36 37 38 38 39 39 39 39 40 42 45 48 50 54 58 65 71 74 80 84 87 90 88 84 83 75 62 65
47 44 44 43 39 36 34 31 29 29 30 31 29 24 21 21 23 23 23 24 25 25 27 32 39 51 61 70 74 78 79 79 80 81 84 73 59 60
41 40 38 35 32 29 26 24 23 19 13 11 12 13 13 13 12 12 14 16 16 14 13 15 14 24 34 41 44 51 53 58 67 69 79 71 56 57
31 29 27 24 20 17 14 12 11 11 11 11 11 10 8 6 3 2 1 5 8 21 16 20 13 18 25 35 36 35 44 51 65 50 63 68 67 61

GFSNE_500_spd_117.txt.gz
Wind_Speed
50 53 58 64 66 66 64 63 60 62 57 56 55 50 53 51 45 47 47 46 48 48 46 47 46 48 49 45 41 44 41 49 47 49 45 36 36 42
49 51 51 53 59 61 60 58 57 55 56 53 52 54 55 50 51 54 54 51 52 49 49 51 49 47 47 45 43 45 48 43 51 51 50 38 37 36
48 48 52 51 54 53 52 54 56 57 55 53 54 57 55 57 55 55 52 51 49 50 52 51 59 57 50 46 45 46 49 51 51 52 46 43 42 38
46 49 50 47 51 49 47 48 49 48 51 49 53 57 57 56 56 54 51 49 41 50 52 52 54 54 56 54 48 45 41 44 47 48 47 44 42 44
40 38 46 47 48 50 50 53 56 55 56 55 52 53 52 54 52 52 49 51 48 50 52 54 51 51 51 49 50 47 46 46 48 46 49 48 45 46
43 44 43 44 45 51 52 50 51 50 52 55 51 50 48 47 49 46 46 48 53 49 45 46 49 46 41 43 46 52 51 48 54 53 49 49 50 46
40 44 48 52 46 48 52 58 55 53 52 51 50 54 49 50 54 52 54 52 49 48 51 47 45 45 44 43 42 44 47 48 49 54 58 52 50 47
42 42 43 43 42 42 46 40 44 44 45 44 43 42 43 43 42 54 56 53 55 50 44 44 46 45 43 38 41 41 46 40 42 46 47 47 47 49
48 48 49 49 49 50 50 51 51 51 51 50 50 51 51 49 47 47 43 43 47 48 48 42 35 33 31 34 32 30 31 27 27 32 38 41 39 41
54 54 54 55 56 56 56 57 58 59 58 57 56 56 56 57 56 54 53 51 48 46 45 38 47 44 41 36 39 39 33 29 27 27 29 34 36 38
59 59 60 59 60 62 63 63 63 64 64 64 64 64 64 64 63 63 62 60 59 58 58 57 56 54 52 50 46 44 42 39 35 32 28 21 26 22
61 63 65 65 67 67 66 67 68 69 69 70 71 70 69 68 68 69 69 70 68 66 66 64 63 61 58 56 55 53 52 49 46 43 39 36 32 30
65 65 66 67 69 70 72 73 75 76 75 75 75 76 76 76 75 74 73 72 71 73 74 74 71 69 66 64 63 60 58 56 54 51 48 46 42 39
62 63 63 65 69 72 74 77 78 79 80 81 81 81 81 82 83 83 81 79 79 77 77 80 79 79 76 72 70 69 66 64 61 58 55 53 51 48
52 53 55 59 61 64 67 70 73 75 77 79 81 83 84 85 85 86 87 88 86 84 83 82 82 83 83 80 77 75 74 71 69 65 63 60 57 56
52 54 59 62 64 66 68 70 73 75 76 78 79 80 81 82 82 83 84 85 87 88 87 87 86 85 85 84 84 82 80 78 76 73 71 69 66 63
53 57 60 63 65 67 69 71 71 73 75 77 79 80 82 83 83 84 83 83 83 84 85 87 87 87 84 84 85 85 84 83 81 80 78 76 73 69
60 63 64 65 64 63 63 62 62 62 63 65 67 70 72 75 77 79 82 83 83 82 84 85 88 87 85 83 82 84 84 84 84 84 83 82 78 75
56 57 56 55 53 52 51 51 49 49 49 48 50 52 56 58 61 63 67 72 76 79 80 82 84 87 88 84 84 83 84 84 86 88 86 84 82 78
48 44 41 40 39 39 38 38 37 37 37 37 36 36 37 39 41 45 47 50 54 58 63 68 72 75 80 84 88 88 87 86 89 91 90 88 85 80
41 39 36 32 29 26 24 23 22 22 22 21 21 20 20 20 21 24 26 29 31 34 37 41 46 52 60 67 76 83 88 89 90 92 93 91 89 86
36 34 33 31 28 26 24 21 18 16 14 12 12 12 12 11 12 12 12 12 11 12 15 20 24 28 35 45 58 69 79 85 86 86 88 90 89 85
35 34 33 31 28 26 25 22 20 17 15 14 12 10 9 7 5 3 2 1 4 6 10 12 10 2 9 17 31 46 62 70 74 78 79 83 84 86

GFSNE_500_spd_120.txt.gz
Wind_Speed
47 48 50 54 54 57 61 69 74 71 69 70 67 64 65 66 64 54 47 48 49 48 46 47 44 44 43 42 44 41 43 42 42 39 38 41 41 45
36 40 46 52 55 55 53 58 64 68 72 70 69 64 61 59 59 54 57 54 52 52 50 51 50 49 49 47 46 48 46 46 44 47 48 48 48 49
42 43 47 47 50 49 53 55 57 61 63 66 66 67 65 61 62 61 56 57 55 56 58 58 57 55 53 52 51 51 47 49 50 50 52 53 53 47
47 49 51 52 52 51 53 54 55 57 59 59 59 62 63 63 61 62 62 62 60 59 61 63 60 57 57 54 52 56 52 53 52 55 53 51 56 53
40 42 45 45 48 50 51 55 57 55 57 56 54 54 55 58 60 60 60 62 60 62 66 61 58 51 45 48 52 57 61 61 58 54 56 48 47 50
36 39 44 47 50 48 48 50 52 56 56 57 59 59 58 58 60 60 63 62 59 58 56 56 58 63 59 51 54 55 55 56 59 58 59 48 46 46
42 42 40 41 40 42 42 52 56 55 60 63 55 55 60 57 56 63 60 62 56 49 50 53 58 59 60 56 55 53 49 49 47 48 52 52 52 49
47 48 48 48 47 47 46 47 45 45 48 50 55 57 52 53 58 55 55 60 54 51 52 52 52 49 54 54 51 53 47 47 47 45 47 50 51 52
52 53 54 54 54 54 53 53 53 53 52 50 51 51 50 46 46 51 46 44 45 44 49 54 55 54 58 54 53 54 48 47 47 47 45 46 47 46
54 54 55 57 59 59 59 59 59 59 59 58 57 55 56 55 52 52 51 50 49 47 47 45 50 57 54 54 55 54 53 43 38 39 44 44 44 44
57 58 58 59 59 63 63 62 63 65 67 65 64 63 61 61 60 61 61 58 57 56 57 51 52 45 40 50 49 50 45 41 39 32 35 32 35 41
55 58 61 62 63 63 65 66 66 66 68 70 72 72 71 69 69 67 66 64 63 61 62 60 58 58 50 47 48 47 47 49 48 45 45 36 31 34
51 54 56 57 59 62 66 68 70 71 71 73 73 73 74 76 76 75 73 72 70 68 66 67 67 66 62 58 60 56 54 54 55 53 49 48 44 41
45 46 47 48 51 54 57 60 63 67 70 72 74 76 78 79 79 79 79 78 76 74 73 72 70 70 71 68 67 70 67 66 61 60 58 55 52 50
42 41 43 46 51 55 59 63 66 68 70 71 72 73 75 77 79 82 83 83 82 81 81 79 78 76 75 73 72 74 75 74 71 67 64 64 60 56
41 45 49 51 55 59 63 67 70 71 71 72 73 73 74 74 75 77 78 81 84 85 87 87 85 83 81 79 79 77 77 79 80 77 74 71 69 65
45 42 41 45 48 51 55 59 61 63 66 67 69 70 71 73 74 76 77 78 79 82 84 88 90 90 88 87 84 82 82 82 83 84 83 80 77 72
40 40 41 40 42 43 43 42 45 49 51 52 54 56 58 61 64 67 71 74 76 79 81 83 86 89 92 91 92 90 89 86 87 86 88 86 83 81
40 39 39 39 40 40 39 38 35 34 35 37 39 40 41 43 46 49 55 62 67 71 75 78 82 85 88 88 88 91 88 91 90 88 87 89 88 86
40 40 40 39 39 38 37 35 34 32 28 25 23 23 25 27 29 34 38 42 47 52 56 62 68 76 83 87 88 87 87 86 87 88 87 88 90 90
41 42 41 40 39 39 38 37 35 32 29 26 23 20 18 16 17 17 19 23 26 30 34 40 47 54 62 72 81 84 88 88 87 87 87 87 89 90
44 41 39 37 38 39 35 32 30 30 28 25 22 21 20 18 17 17 16 15 17 16 18 22 25 29 33 41 51 62 74 83 88 87 88 88 89 88
44 37 33 32 32 27 23 22 24 25 26 24 22 19 18 15 14 14 12 9 8 6 8 13 14 11 11 11 21 33 47 62 76 83 84 85 88 88